EW4595 Weather Reports


Display with metric or nautical units.
time (UTC)temp
F
wind
direction
speed
MPH
gust
MPH
rain 1hr
in
rain 24hr
in
rain mn
in
humidity
%
barometer
mb
20260509164603 51 238 8.0 15.0 0.00 0.00 0.00 76 1019.4
20260509164504 51 249 8.0 16.0 0.00 0.00 0.00 76 1019.6
20260509164403 51 248 8.0 16.0 0.00 0.00 0.00 76 1019.7
20260509164305 51 244 4.0 16.0 0.00 0.00 0.00 76 1019.5
20260509164216 51 250 8.0 16.0 0.00 0.00 0.00 76 1019.6
20260509164203 51 250 4.0 16.0 0.00 0.00 0.00 76 1019.5
20260509164104 51 248 10.0 16.0 0.00 0.00 0.00 76 1019.6
20260509163903 51 230 9.0 15.0 0.00 0.00 0.00 76 1019.6
20260509163804 51 233 7.0 15.0 0.00 0.00 0.00 76 1019.6
20260509163703 51 224 4.0 15.0 0.00 0.00 0.00 76 1019.5
20260509163604 51 223 5.0 15.0 0.00 0.00 0.00 76 1019.6
20260509163505 51 223 7.0 15.0 0.00 0.00 0.00 76 1019.3
20260509163403 51 227 8.0 18.0 0.00 0.00 0.00 76 1019.5
20260509163303 51 212 8.0 18.0 0.00 0.00 0.00 75 1019.5
20260509163204 51 211 5.0 18.0 0.00 0.00 0.00 75 1019.5
20260509163104 51 216 5.0 18.0 0.00 0.00 0.00 75 1019.5
20260509163004 51 211 5.0 18.0 0.00 0.00 0.00 75 1019.3
20260509162917 51 207 10.0 18.0 0.00 0.00 0.00 75 1019.4
20260509162904 51 210 10.0 18.0 0.00 0.00 0.00 75 1019.4
20260509162804 51 223 4.0 16.0 0.00 0.00 0.00 75 1019.5
20260509162609 51 215 8.0 18.0 0.00 0.00 0.00 76 1019.5
20260509162504 51 217 8.0 18.0 0.00 0.00 0.00 76 1019.5
20260509162404 51 204 10.0 18.0 0.00 0.00 0.00 75 1019.5
20260509162307 51 203 5.0 18.0 0.00 0.00 0.00 76 1019.5
20260509162205 51 209 11.0 18.0 0.00 0.00 0.00 76 1019.5
20260509162116 51 210 8.0 16.0 0.00 0.00 0.00 76 1019.4
20260509162004 51 222 9.0 16.0 0.00 0.00 0.00 76 1019.5
20260509161913 51 236 6.0 16.0 0.00 0.00 0.00 76 1019.8
20260509161803 51 249 6.0 16.0 0.00 0.00 0.00 77 1019.7
20260509161604 50 243 8.0 24.0 0.00 0.00 0.00 77 1019.8
20260509161504 51 241 9.0 24.0 0.00 0.00 0.00 76 1019.5
20260509161403 51 246 7.0 24.0 0.00 0.00 0.00 75 1019.6
20260509161303 51 242 8.0 24.0 0.00 0.00 0.00 75 1019.6
20260509161203 51 239 12.0 24.0 0.00 0.00 0.00 74 1019.6
20260509161105 51 232 8.0 22.0 0.00 0.00 0.00 74 1019.5
20260509161004 51 233 11.0 22.0 0.00 0.00 0.00 74 1019.5
20260509160903 51 223 9.0 22.0 0.00 0.00 0.00 74 1019.6
20260509160805 51 218 8.0 17.0 0.00 0.00 0.00 74 1019.6
20260509160703 51 216 7.0 17.0 0.00 0.00 0.00 74 1019.6
20260509160603 51 237 8.0 17.0 0.00 0.00 0.00 74 1019.5
20260509160403 51 232 8.0 14.0 0.00 0.00 0.00 74 1019.5
20260509160303 51 235 5.0 16.0 0.00 0.00 0.00 74 1019.4
20260509160205 51 217 9.0 18.0 0.00 0.00 0.00 74 1019.8
20260509160103 51 209 8.0 18.0 0.00 0.00 0.00 74 1019.6
20260509160008 51 215 5.0 18.0 0.00 0.00 0.00 75 1019.3
20260509155903 51 221 8.0 23.0 0.00 0.00 0.00 75 1019.4
20260509155805 51 221 10.0 23.0 0.00 0.00 0.00 74 1019.4
20260509155703 51 237 11.0 23.0 0.00 0.00 0.00 74 1019.2
20260509155616 51 241 8.0 23.0 0.00 0.00 0.00 74 1019.7
20260509155503 51 232 8.0 23.0 0.00 0.00 0.00 74 1019.5
20260509155306 51 225 7.0 18.0 0.00 0.00 0.00 74 1019.7
20260509155203 51 229 8.0 18.0 0.00 0.00 0.00 74 1019.4
20260509155105 51 225 13.0 18.0 0.00 0.00 0.00 74 1019.6
20260509155018 51 229 7.0 15.0 0.00 0.00 0.00 74 1019.3
20260509155003 51 232 6.0 15.0 0.00 0.00 0.00 74 1019.4
20260509154705 51 250 6.0 15.0 0.00 0.00 0.00 74 1019.5
20260509154605 51 232 7.0 22.0 0.00 0.00 0.00 74 1019.6
20260509154515 51 224 5.0 22.0 0.00 0.00 0.00 75 1019.4
20260509154503 51 219 5.0 22.0 0.00 0.00 0.00 75 1019.4
20260509154405 51 223 7.0 22.0 0.00 0.00 0.00 75 1019.4
20260509154208 51 221 11.0 22.0 0.00 0.00 0.00 75 1019.6
20260509154104 51 219 8.0 20.0 0.00 0.00 0.00 75 1019.5
20260509154003 51 220 8.0 20.0 0.00 0.00 0.00 76 1019.6
20260509153905 50 218 11.0 20.0 0.00 0.00 0.00 75 1019.3
20260509153804 51 218 11.0 20.0 0.00 0.00 0.00 75 1019.3
20260509153704 51 225 8.0 17.0 0.00 0.00 0.00 75 1019.5
20260509153604 51 227 9.0 17.0 0.00 0.00 0.00 75 1019.3
20260509153504 51 237 6.0 17.0 0.00 0.00 0.00 75 1019.5
20260509153404 51 230 10.0 17.0 0.00 0.00 0.00 75 1019.3
20260509153306 51 225 7.0 17.0 0.00 0.00 0.00 75 1019.5
20260509153204 51 229 11.0 17.0 0.00 0.00 0.00 75 1019.6
20260509153104 51 230 10.0 17.0 0.00 0.00 0.00 75 1019.4
20260509153004 51 226 8.0 16.0 0.00 0.00 0.00 75 1019.2
20260509152904 51 235 6.0 17.0 0.00 0.00 0.00 75 1019.3
20260509152804 51 232 7.0 17.0 0.00 0.00 0.00 75 1019.3
20260509152607 51 235 4.0 23.0 0.00 0.00 0.00 75 1019.2
20260509152504 51 234 8.0 23.0 0.00 0.00 0.00 75 1019.5
20260509152406 51 230 8.0 23.0 0.00 0.00 0.00 75 1019.2
20260509152306 51 232 9.0 23.0 0.00 0.00 0.00 75 1019.4
20260509152204 51 228 11.0 18.0 0.00 0.00 0.00 74 1019.5
20260509152103 51 224 11.0 18.0 0.00 0.00 0.00 74 1019.5
20260509152004 51 215 9.0 18.0 0.00 0.00 0.00 74 1019.1
20260509151903 51 204 8.0 18.0 0.00 0.00 0.00 74 1019.2
20260509151803 51 218 9.0 18.0 0.00 0.00 0.00 74 1019.1
20260509151704 51 216 9.0 18.0 0.00 0.00 0.00 74 1019.2
20260509151603 51 236 9.0 18.0 0.00 0.00 0.00 74 1019.1
20260509151505 51 242 9.0 18.0 0.00 0.00 0.00 74 1019.1
20260509151404 51 241 9.0 17.0 0.00 0.00 0.00 74 1019.2
20260509151209 51 227 5.0 22.0 0.00 0.00 0.00 74 1019.2
20260509151103 51 220 10.0 22.0 0.00 0.00 0.00 74 1019.1
20260509150903 51 233 8.0 22.0 0.00 0.00 0.00 74 1019.0
20260509150804 51 235 10.0 22.0 0.00 0.00 0.00 74 1018.9
20260509150704 51 232 13.0 22.0 0.00 0.00 0.00 74 1019.0
20260509150615 51 232 9.0 18.0 0.00 0.00 0.00 74 1019.0
20260509150603 51 234 11.0 18.0 0.00 0.00 0.00 74 1018.9
20260509150505 51 231 7.0 18.0 0.00 0.00 0.00 74 1019.3
20260509150418 51 232 9.0 18.0 0.00 0.00 0.00 74 1019.0
20260509150303 51 231 10.0 18.0 0.00 0.00 0.00 74 1019.2
20260509150103 51 223 8.0 17.0 0.00 0.00 0.00 74 1019.1
20260509150004 51 222 11.0 20.0 0.00 0.00 0.00 74 1019.1
20260509145903 51 217 10.0 20.0 0.00 0.00 0.00 74 1018.8
20260509145803 51 220 9.0 20.0 0.00 0.00 0.00 74 1018.9
20260509145718 51 218 8.0 20.0 0.00 0.00 0.00 73 1018.9
20260509145703 51 216 8.0 20.0 0.00 0.00 0.00 73 1018.9
20260509145603 51 214 8.0 20.0 0.00 0.00 0.00 73 1019.1
20260509145403 51 215 8.0 20.0 0.00 0.00 0.00 73 1018.8
20260509145306 51 215 6.0 20.0 0.00 0.00 0.00 73 1019.0
20260509145203 51 226 7.0 20.0 0.00 0.00 0.00 73 1019.0
20260509145103 51 230 9.0 20.0 0.00 0.00 0.00 73 1018.6
20260509145003 51 239 11.0 20.0 0.00 0.00 0.00 73 1018.6
20260509144803 51 249 8.0 18.0 0.00 0.00 0.00 73 1018.7
20260509144703 51 253 8.0 18.0 0.00 0.00 0.00 73 1018.7
20260509144605 51 253 7.0 18.0 0.00 0.00 0.00 73 1018.6
20260509144516 51 241 10.0 18.0 0.00 0.00 0.00 73 1018.7
20260509144504 51 240 10.0 18.0 0.00 0.00 0.00 73 1018.7
20260509144403 51 243 9.0 18.0 0.00 0.00 0.00 73 1018.9
20260509144205 51 244 6.0 16.0 0.00 0.00 0.00 73 1018.5
20260509144103 51 241 5.0 16.0 0.00 0.00 0.00 73 1018.6
20260509144019 51 243 9.0 16.0 0.00 0.00 0.00 73 1018.7
20260509144006 51 244 9.0 16.0 0.00 0.00 0.00 73 1018.7
20260509143903 51 247 8.0 15.0 0.00 0.00 0.00 73 1018.5
20260509143816 51 236 9.0 15.0 0.00 0.00 0.00 73 1018.8
20260509143704 51 225 8.0 15.0 0.00 0.00 0.00 73 1018.7
20260509143404 51 236 7.0 22.0 0.00 0.00 0.00 74 1018.6
20260509143304 51 236 7.0 22.0 0.00 0.00 0.00 74 1018.3
20260509143207 51 231 6.0 22.0 0.00 0.00 0.00 74 1018.5
20260509143105 51 237 6.0 22.0 0.00 0.00 0.00 74 1018.5
20260509143005 51 241 9.0 23.0 0.00 0.00 0.00 74 1018.4
20260509142903 51 232 11.0 23.0 0.00 0.00 0.00 74 1018.3
20260509142804 51 234 9.0 23.0 0.00 0.00 0.00 74 1018.5
20260509142704 51 239 10.0 23.0 0.00 0.00 0.00 74 1018.4
20260509142608 51 234 7.0 23.0 0.00 0.00 0.00 74 1018.6
20260509142503 51 227 10.0 17.0 0.00 0.00 0.00 74 1018.3
20260509142403 51 231 11.0 17.0 0.00 0.00 0.00 74 1018.4
20260509142307 51 230 11.0 17.0 0.00 0.00 0.00 74 1018.4
20260509142204 51 242 12.0 17.0 0.00 0.00 0.00 74 1018.4
20260509142103 51 254 8.0 17.0 0.00 0.00 0.00 74 1018.6
20260509142005 51 269 10.0 17.0 0.00 0.00 0.00 74 1018.4
20260509141904 51 264 9.0 17.0 0.00 0.00 0.00 74 1018.5
20260509141804 51 257 11.0 22.0 0.00 0.00 0.00 74 1018.4
20260509141705 51 225 10.0 22.0 0.00 0.00 0.00 74 1018.5
20260509141603 51 220 8.0 22.0 0.00 0.00 0.00 74 1018.3
20260509141503 51 218 11.0 22.0 0.00 0.00 0.00 74 1018.5
20260509141403 51 221 11.0 22.0 0.00 0.00 0.00 74 1018.3
20260509141303 51 225 11.0 22.0 0.00 0.00 0.00 74 1018.2
20260509141207 51 227 8.0 18.0 0.00 0.00 0.00 74 1018.2
20260509141105 51 229 6.0 18.0 0.00 0.00 0.00 74 1018.3
20260509141017 51 231 6.0 18.0 0.00 0.00 0.00 74 1018.5
20260509141004 51 232 6.0 18.0 0.00 0.00 0.00 74 1018.4
20260509140903 51 226 8.0 18.0 0.00 0.00 0.00 74 1018.3
20260509140703 51 208 9.0 20.0 0.00 0.00 0.00 74 1018.3
20260509140603 51 215 8.0 20.0 0.00 0.00 0.00 74 1018.4
20260509140504 51 223 9.0 20.0 0.00 0.00 0.00 74 1018.5
20260509140403 51 234 10.0 20.0 0.00 0.00 0.00 74 1018.6
20260509140303 51 244 11.0 20.0 0.00 0.00 0.00 74 1018.4
20260509140203 51 248 9.0 18.0 0.00 0.00 0.00 74 1018.3
20260509140105 51 244 8.0 18.0 0.00 0.00 0.00 74 1018.4
20260509140005 51 239 12.0 18.0 0.00 0.00 0.00 74 1018.4
20260509135903 51 241 7.0 17.0 0.00 0.00 0.00 74 1018.3
20260509135803 51 235 8.0 17.0 0.00 0.00 0.00 74 1018.3
20260509135703 51 244 9.0 17.0 0.00 0.00 0.00 74 1018.1
20260509135617 51 243 11.0 17.0 0.00 0.00 0.00 74 1018.0
20260509135521 51 236 9.0 16.0 0.00 0.00 0.00 74 1018.3
20260509135505 51 230 9.0 16.0 0.00 0.00 0.00 74 1018.3
20260509135414 51 215 9.0 14.0 0.00 0.00 0.00 74 1018.1
20260509135105 51 219 7.0 18.0 0.00 0.00 0.00 74 1018.2
20260509135005 51 226 7.0 18.0 0.00 0.00 0.00 74 1018.3
20260509134803 51 243 7.0 18.0 0.00 0.00 0.00 74 1018.0
20260509134708 51 233 9.0 18.0 0.00 0.00 0.00 74 1018.2
20260509134604 51 238 8.0 17.0 0.00 0.00 0.00 74 1018.2
20260509134506 51 243 7.0 17.0 0.00 0.00 0.00 74 1018.2
20260509134404 51 239 6.0 18.0 0.00 0.00 0.00 75 1018.3
20260509134305 51 226 7.0 18.0 0.00 0.00 0.00 75 1018.2
20260509134204 51 231 9.0 18.0 0.00 0.00 0.00 74 1018.2
20260509134103 51 240 11.0 18.0 0.00 0.00 0.00 74 1018.2
20260509134004 51 255 7.0 18.0 0.00 0.00 0.00 74 1018.1
20260509133903 51 260 8.0 18.0 0.00 0.00 0.00 74 1018.2
20260509133805 51 258 6.0 17.0 0.00 0.00 0.00 74 1018.1
20260509133704 51 251 5.0 17.0 0.00 0.00 0.00 75 1018.2
20260509133603 51 238 5.0 17.0 0.00 0.00 0.00 75 1018.1
20260509133504 51 229 5.0 17.0 0.00 0.00 0.00 75 1018.1
20260509133403 51 207 11.0 21.0 0.00 0.00 0.00 75 1018.1
20260509133303 51 199 11.0 21.0 0.00 0.00 0.00 75 1018.1
20260509133205 51 190 8.0 21.0 0.00 0.00 0.00 75 1018.2
20260509133105 51 186 8.0 21.0 0.00 0.00 0.00 75 1018.1
20260509133004 51 200 10.0 21.0 0.00 0.00 0.00 75 1018.4
20260509132914 51 229 6.0 21.0 0.00 0.00 0.00 75 1018.2
20260509132903 51 230 6.0 21.0 0.00 0.00 0.00 75 1018.2
20260509132805 51 229 5.0 21.0 0.00 0.00 0.00 75 1018.0
20260509132604 51 234 8.0 21.0 0.00 0.00 0.00 76 1018.1
20260509132513 51 228 11.0 21.0 0.00 0.00 0.00 76 1018.0
20260509132504 51 225 11.0 21.0 0.00 0.00 0.00 76 1018.0
20260509132403 51 209 11.0 21.0 0.00 0.00 0.00 76 1018.1
20260509132204 51 212 5.0 24.0 0.00 0.00 0.00 76 1018.0
20260509132103 50 215 10.0 24.0 0.00 0.00 0.00 76 1018.1
20260509132010 50 217 6.0 24.0 0.00 0.00 0.00 77 1017.9
20260509131903 50 225 8.0 24.0 0.00 0.00 0.00 77 1017.7
20260509131717 50 238 14.0 24.0 0.00 0.00 0.00 77 1018.0
20260509131706 50 240 14.0 24.0 0.00 0.00 0.00 77 1018.0
20260509131603 50 243 9.0 22.0 0.00 0.00 0.00 77 1018.0
20260509131403 50 243 9.0 22.0 0.00 0.00 0.00 77 1018.0
20260509131305 50 242 10.0 22.0 0.00 0.00 0.00 77 1017.9
20260509131203 50 237 9.0 22.0 0.00 0.00 0.00 77 1017.9
20260509131103 50 229 11.0 18.0 0.00 0.00 0.00 77 1017.8
20260509131003 50 225 9.0 22.0 0.00 0.00 0.00 78 1018.0
20260509130904 50 230 8.0 22.0 0.00 0.00 0.00 78 1018.0
20260509130804 50 227 4.0 22.0 0.00 0.00 0.00 78 1017.9
20260509130703 49 223 8.0 22.0 0.00 0.00 0.00 78 1017.9
20260509130603 49 230 9.0 22.0 0.00 0.00 0.00 79 1018.0
20260509130503 49 229 8.0 17.0 0.00 0.00 0.00 79 1018.0
20260509130405 49 213 10.0 17.0 0.00 0.00 0.00 79 1017.8
20260509130305 49 214 8.0 17.0 0.00 0.00 0.00 79 1017.9
20260509130203 49 229 7.0 16.0 0.00 0.00 0.00 79 1017.8
20260509130104 49 224 8.0 16.0 0.00 0.00 0.00 79 1017.9
20260509130013 49 215 8.0 16.0 0.00 0.00 0.00 79 1017.8
20260509130004 49 211 8.0 16.0 0.00 0.00 0.00 79 1017.8
20260509125903 49 225 4.0 16.0 0.00 0.00 0.00 80 1017.9
20260509125815 49 228 4.0 16.0 0.00 0.00 0.00 80 1017.7
20260509125703 49 225 7.0 18.0 0.00 0.00 0.00 80 1017.7
20260509125618 49 227 8.0 18.0 0.00 0.00 0.00 80 1017.8
20260509125505 49 238 8.0 20.0 0.00 0.00 0.00 80 1017.7
20260509125307 49 249 4.0 20.0 0.00 0.00 0.00 80 1017.8
20260509125217 49 246 11.0 20.0 0.00 0.00 0.00 80 1017.6
20260509125203 49 244 11.0 20.0 0.00 0.00 0.00 80 1017.6
20260509125105 49 250 12.0 20.0 0.00 0.00 0.00 80 1017.7
20260509124904 49 251 5.0 18.0 0.00 0.00 0.00 80 1017.6
20260509124804 49 243 11.0 18.0 0.00 0.00 0.00 80 1017.7
20260509124704 49 240 9.0 16.0 0.00 0.00 0.00 80 1017.6
20260509124604 49 236 8.0 14.0 0.00 0.00 0.00 80 1017.9
20260509124504 49 232 4.0 14.0 0.00 0.00 0.00 80 1017.9
20260509124405 49 235 5.0 14.0 0.00 0.00 0.00 80 1017.8
20260509124303 49 244 9.0 17.0 0.00 0.00 0.00 80 1017.8
20260509124205 49 244 8.0 22.0 0.00 0.00 0.00 80 1017.7
20260509124103 49 236 6.0 22.0 0.00 0.00 0.00 80 1017.7
20260509124004 49 239 7.0 22.0 0.00 0.00 0.00 80 1017.7
20260509123907 49 234 6.0 22.0 0.00 0.00 0.00 81 1017.7
20260509123804 49 224 12.0 22.0 0.00 0.00 0.00 80 1017.7
20260509123615 49 225 8.0 20.0 0.00 0.00 0.00 81 1017.6
20260509123507 49 223 8.0 20.0 0.00 0.00 0.00 81 1017.7
20260509123315 49 212 7.0 17.0 0.00 0.00 0.00 81 1017.7
20260509123304 49 216 7.0 17.0 0.00 0.00 0.00 81 1017.7
20260509123205 49 230 7.0 20.0 0.00 0.00 0.00 81 1017.4
20260509123003 49 217 7.0 20.0 0.00 0.00 0.00 81 1017.5
20260509122905 49 209 9.0 20.0 0.00 0.00 0.00 80 1017.7
20260509122805 49 208 10.0 20.0 0.00 0.00 0.00 81 1017.3
20260509122705 49 202 12.0 20.0 0.00 0.00 0.00 80 1017.6
20260509122603 49 213 9.0 21.0 0.00 0.00 0.00 81 1017.6
20260509122504 49 235 5.0 21.0 0.00 0.00 0.00 81 1017.5
20260509122411 49 243 7.0 21.0 0.00 0.00 0.00 81 1017.4
20260509122403 49 247 7.0 21.0 0.00 0.00 0.00 81 1017.4
20260509122103 49 251 11.0 21.0 0.00 0.00 0.00 81 1017.4
20260509122017 49 247 11.0 20.0 0.00 0.00 0.00 81 1017.4
20260509122005 49 245 11.0 20.0 0.00 0.00 0.00 81 1017.4
20260509121903 49 234 8.0 17.0 0.00 0.00 0.00 81 1017.4
20260509121703 49 228 10.0 17.0 0.00 0.00 0.00 81 1017.4
20260509121606 49 234 8.0 16.0 0.00 0.00 0.00 81 1017.2
20260509121505 49 238 5.0 20.0 0.00 0.00 0.00 82 1017.3
20260509121406 49 236 7.0 20.0 0.00 0.00 0.00 81 1017.2
20260509121303 49 228 8.0 20.0 0.00 0.00 0.00 81 1017.3
20260509121203 49 222 8.0 20.0 0.00 0.00 0.00 81 1017.5
20260509121103 49 220 9.0 20.0 0.00 0.00 0.00 81 1017.1
20260509121003 49 216 8.0 20.0 0.00 0.00 0.00 81 1017.3
20260509120905 49 216 6.0 20.0 0.00 0.00 0.00 81 1017.2
20260509120805 49 220 8.0 20.0 0.00 0.00 0.00 81 1017.2
20260509120703 49 220 8.0 20.0 0.00 0.00 0.00 81 1017.1
20260509120603 49 213 4.0 17.0 0.00 0.00 0.00 81 1017.2
20260509120503 49 210 6.0 18.0 0.00 0.00 0.00 81 1017.4
20260509120404 49 219 6.0 18.0 0.00 0.00 0.00 81 1017.1
20260509120304 49 222 7.0 18.0 0.00 0.00 0.00 81 1017.3
20260509120217 49 219 7.0 21.0 0.00 0.00 0.00 81 1017.2
20260509120205 49 221 6.0 21.0 0.00 0.00 0.00 81 1017.1
20260509120104 49 234 10.0 21.0 0.00 0.00 0.00 81 1017.1
20260509115903 49 240 11.0 21.0 0.00 0.00 0.00 81 1017.2
20260509115805 49 234 11.0 21.0 0.00 0.00 0.00 81 1016.9
20260509115703 49 241 10.0 17.0 0.00 0.00 0.00 81 1017.1
20260509115604 49 243 7.0 22.0 0.00 0.00 0.00 81 1017.1
20260509115503 49 239 5.0 22.0 0.00 0.00 0.00 81 1017.0
20260509115405 49 239 10.0 22.0 0.00 0.00 0.00 81 1016.9
20260509115319 49 244 7.0 22.0 0.00 0.00 0.00 81 1017.1
20260509115306 49 245 7.0 22.0 0.00 0.00 0.00 81 1017.1
20260509115218 49 250 9.0 22.0 0.00 0.00 0.00 81 1016.9
20260509115204 49 252 9.0 22.0 0.00 0.00 0.00 81 1016.9
20260509115116 49 245 12.0 22.0 0.00 0.00 0.00 81 1016.8
20260509114803 49 241 6.0 18.0 0.00 0.00 0.00 81 1016.7
20260509114704 49 233 11.0 23.0 0.00 0.00 0.00 81 1016.9
20260509114605 49 230 11.0 23.0 0.00 0.00 0.00 81 1017.1
20260509114506 49 236 9.0 23.0 0.00 0.00 0.00 81 1017.1
20260509114404 49 237 8.0 23.0 0.00 0.00 0.00 81 1016.8
20260509114303 49 238 10.0 23.0 0.00 0.00 0.00 81 1016.8
20260509114205 49 239 11.0 18.0 0.00 0.00 0.00 81 1016.8
20260509114103 49 244 11.0 18.0 0.00 0.00 0.00 81 1016.7
20260509114016 49 243 9.0 16.0 0.00 0.00 0.00 81 1016.8
20260509114006 49 241 9.0 16.0 0.00 0.00 0.00 81 1016.8
20260509113903 49 245 8.0 16.0 0.00 0.00 0.00 81 1016.8
20260509113704 49 242 9.0 14.0 0.00 0.00 0.00 82 1016.6
20260509113603 49 239 8.0 14.0 0.00 0.00 0.00 82 1016.7
20260509113509 49 243 5.0 11.0 0.00 0.00 0.00 82 1016.7
20260509113403 49 238 6.0 17.0 0.00 0.00 0.00 82 1016.6
20260509113316 49 240 6.0 17.0 0.00 0.00 0.00 82 1016.6
20260509113304 49 239 6.0 17.0 0.00 0.00 0.00 82 1016.6
20260509113204 49 233 6.0 17.0 0.00 0.00 0.00 82 1016.7
20260509113113 49 232 6.0 17.0 0.00 0.00 0.00 82 1016.5
20260509113005 49 225 8.0 17.0 0.00 0.00 0.00 82 1016.6
20260509112803 49 230 7.0 20.0 0.00 0.00 0.00 82 1016.6
20260509112703 49 222 6.0 20.0 0.00 0.00 0.00 82 1016.8
20260509112604 49 231 11.0 20.0 0.00 0.00 0.00 82 1016.5
20260509112404 49 243 10.0 20.0 0.00 0.00 0.00 82 1016.7
20260509112306 49 242 12.0 18.0 0.00 0.00 0.00 82 1016.8
20260509112203 49 269 6.0 17.0 0.00 0.00 0.00 82 1016.7
20260509112105 49 265 6.0 17.0 0.00 0.00 0.00 82 1016.4
20260509112003 49 253 9.0 17.0 0.00 0.00 0.00 82 1016.4
20260509111904 49 244 12.0 16.0 0.00 0.00 0.00 82 1016.4
20260509111803 49 245 9.0 16.0 0.00 0.00 0.00 82 1016.5
20260509111703 49 231 9.0 16.0 0.00 0.00 0.00 82 1016.7
20260509111603 49 227 7.0 15.0 0.00 0.00 0.00 82 1016.4
20260509111506 49 236 7.0 15.0 0.00 0.00 0.00 82 1016.5
20260509111403 49 243 8.0 15.0 0.00 0.00 0.00 82 1016.4
20260509111303 49 246 10.0 15.0 0.00 0.00 0.00 82 1016.5
20260509111204 49 239 6.0 13.0 0.00 0.00 0.00 82 1016.6
20260509111104 49 241 7.0 13.0 0.00 0.00 0.00 82 1016.4
20260509111005 49 240 7.0 18.0 0.00 0.00 0.00 83 1016.4
20260509110903 49 246 6.0 18.0 0.00 0.00 0.00 83 1016.4
20260509110804 49 247 5.0 18.0 0.00 0.00 0.00 83 1016.5
20260509110704 49 253 5.0 18.0 0.00 0.00 0.00 83 1016.4
20260509110604 49 252 10.0 18.0 0.00 0.00 0.00 83 1016.5
20260509110504 49 250 6.0 18.0 0.00 0.00 0.00 83 1016.4
20260509110415 49 244 13.0 18.0 0.00 0.00 0.00 83 1016.3
20260509110403 49 243 13.0 18.0 0.00 0.00 0.00 83 1016.3
20260509110305 49 238 8.0 16.0 0.00 0.00 0.00 83 1016.4
20260509110104 49 219 5.0 14.0 0.00 0.00 0.00 83 1016.2
20260509110005 48 218 7.0 14.0 0.00 0.00 0.00 84 1016.2
20260509105904 48 221 10.0 14.0 0.00 0.00 0.00 84 1016.2
20260509105803 48 224 10.0 14.0 0.00 0.00 0.00 84 1016.3
20260509105703 48 223 9.0 14.0 0.00 0.00 0.00 84 1016.2
20260509105604 48 230 9.0 14.0 0.00 0.00 0.00 85 1016.2
20260509105504 48 234 8.0 14.0 0.00 0.00 0.00 85 1016.1
20260509105416 48 235 7.0 13.0 0.00 0.00 0.00 85 1016.2
20260509105406 48 234 8.0 13.0 0.00 0.00 0.00 85 1016.2
20260509105306 48 231 4.0 13.0 0.00 0.00 0.00 86 1016.3
20260509105213 48 236 5.0 17.0 0.00 0.00 0.00 86 1016.2
20260509105104 48 242 7.0 17.0 0.00 0.00 0.00 86 1016.2
20260509104803 48 243 4.0 17.0 0.00 0.00 0.00 87 1016.1
20260509104703 48 241 8.0 17.0 0.00 0.00 0.00 87 1015.9
20260509104605 48 235 6.0 11.0 0.00 0.00 0.00 87 1016.2
20260509104503 48 230 7.0 11.0 0.00 0.00 0.00 87 1016.1
20260509104403 47 229 7.0 11.0 0.00 0.00 0.00 87 1016.1
20260509104303 47 233 6.0 17.0 0.00 0.00 0.00 88 1016.2
20260509104204 47 240 6.0 17.0 0.00 0.00 0.00 88 1016.1
20260509104109 47 247 7.0 17.0 0.00 0.00 0.00 87 1015.9
20260509104004 47 250 6.0 17.0 0.00 0.00 0.00 87 1016.2
20260509103903 47 243 4.0 17.0 0.00 0.00 0.00 87 1016.2
20260509103803 47 241 8.0 17.0 0.00 0.00 0.00 87 1016.0
20260509103704 47 235 8.0 16.0 0.00 0.00 0.00 87 1016.1
20260509103603 47 228 10.0 16.0 0.00 0.00 0.00 87 1016.0
20260509103505 48 227 8.0 16.0 0.00 0.00 0.00 87 1016.1
20260509103403 48 232 5.0 16.0 0.00 0.00 0.00 87 1015.9
20260509103306 48 230 8.0 16.0 0.00 0.00 0.00 87 1016.1
20260509103207 48 235 11.0 16.0 0.00 0.00 0.00 86 1015.8
20260509103103 48 240 7.0 16.0 0.00 0.00 0.00 86 1016.0
20260509103004 48 232 8.0 16.0 0.00 0.00 0.00 86 1016.1
20260509102903 48 227 8.0 16.0 0.00 0.00 0.00 86 1016.1
20260509102803 48 226 9.0 16.0 0.00 0.00 0.00 85 1016.1
20260509102703 48 227 6.0 15.0 0.00 0.00 0.00 85 1016.2
20260509102605 48 232 8.0 16.0 0.00 0.00 0.00 85 1016.1
20260509102503 48 243 8.0 16.0 0.00 0.00 0.00 85 1016.0
20260509102403 48 245 6.0 16.0 0.00 0.00 0.00 85 1016.0
20260509102306 48 248 8.0 16.0 0.00 0.00 0.00 84 1016.0
20260509102203 48 249 8.0 16.0 0.00 0.00 0.00 84 1015.8
20260509102106 48 243 9.0 16.0 0.00 0.00 0.00 84 1016.1
20260509102003 48 240 8.0 16.0 0.00 0.00 0.00 84 1015.8
20260509101906 48 246 11.0 16.0 0.00 0.00 0.00 84 1015.8
20260509101803 48 241 8.0 14.0 0.00 0.00 0.00 84 1016.1
20260509101703 48 236 8.0 14.0 0.00 0.00 0.00 84 1015.8
20260509101605 48 215 8.0 18.0 0.00 0.00 0.00 84 1015.9
20260509101504 48 215 8.0 20.0 0.00 0.00 0.00 84 1015.9
20260509101403 48 208 8.0 20.0 0.00 0.00 0.00 84 1016.0
20260509101306 49 211 6.0 20.0 0.00 0.00 0.00 84 1015.8
20260509101104 48 229 9.0 20.0 0.00 0.00 0.00 84 1015.9
20260509101003 49 237 8.0 13.0 0.00 0.00 0.00 84 1015.9
20260509100903 49 238 8.0 13.0 0.00 0.00 0.00 84 1015.7
20260509100804 49 240 6.0 13.0 0.00 0.00 0.00 84 1015.7
20260509100704 49 241 8.0 13.0 0.00 0.00 0.00 84 1015.7
20260509100619 49 241 7.0 13.0 0.00 0.00 0.00 84 1015.8
20260509100603 49 241 5.0 13.0 0.00 0.00 0.00 84 1015.6
20260509100504 49 242 6.0 13.0 0.00 0.00 0.00 83 1015.7
20260509100305 49 246 7.0 13.0 0.00 0.00 0.00 84 1015.6
20260509100218 49 240 8.0 13.0 0.00 0.00 0.00 84 1015.6
20260509100205 49 239 8.0 13.0 0.00 0.00 0.00 84 1015.5
20260509100104 49 236 8.0 11.0 0.00 0.00 0.00 84 1015.6
20260509095904 49 235 8.0 11.0 0.00 0.00 0.00 84 1015.5
20260509095804 49 226 8.0 11.0 0.00 0.00 0.00 84 1015.6
20260509095603 48 236 7.0 11.0 0.00 0.00 0.00 85 1015.4
20260509095505 48 243 5.0 11.0 0.00 0.00 0.00 85 1015.6
20260509095417 48 244 4.0 11.0 0.00 0.00 0.00 85 1015.7
20260509095404 48 240 3.0 20.0 0.00 0.00 0.00 85 1015.5
20260509095306 48 238 7.0 20.0 0.00 0.00 0.00 85 1015.7
20260509095219 49 241 5.0 20.0 0.00 0.00 0.00 85 1015.6
20260509095104 48 241 8.0 20.0 0.00 0.00 0.00 85 1015.3
20260509095016 48 237 7.0 20.0 0.00 0.00 0.00 85 1015.5
20260509094905 48 240 9.0 20.0 0.00 0.00 0.00 85 1015.3
20260509094704 48 247 8.0 13.0 0.00 0.00 0.00 85 1015.5
20260509094606 48 241 8.0 13.0 0.00 0.00 0.00 85 1015.5
20260509094504 48 239 8.0 13.0 0.00 0.00 0.00 85 1015.6
20260509094403 48 229 8.0 13.0 0.00 0.00 0.00 85 1015.5
20260509094303 48 229 5.0 13.0 0.00 0.00 0.00 85 1015.4
20260509094204 48 230 8.0 15.0 0.00 0.00 0.00 85 1015.5
20260509094103 48 237 7.0 15.0 0.00 0.00 0.00 85 1015.5
20260509094005 48 235 4.0 17.0 0.00 0.00 0.00 85 1015.4
20260509093903 48 237 10.0 17.0 0.00 0.00 0.00 85 1015.5
20260509093804 48 242 7.0 17.0 0.00 0.00 0.00 85 1015.3
20260509093705 48 238 11.0 17.0 0.00 0.00 0.00 86 1015.3
20260509093505 48 235 11.0 17.0 0.00 0.00 0.00 86 1015.2
20260509093403 48 239 11.0 16.0 0.00 0.00 0.00 87 1015.4
20260509093303 48 227 8.0 14.0 0.00 0.00 0.00 87 1015.2
20260509093204 48 229 6.0 14.0 0.00 0.00 0.00 87 1015.3
20260509093103 48 233 6.0 14.0 0.00 0.00 0.00 87 1015.2
20260509093003 48 221 8.0 15.0 0.00 0.00 0.00 88 1015.3
20260509092803 48 239 4.0 16.0 0.00 0.00 0.00 88 1015.2
20260509092705 48 231 4.0 16.0 0.00 0.00 0.00 88 1015.1
20260509092603 48 223 8.0 18.0 0.00 0.00 0.00 88 1015.0
20260509092503 48 231 8.0 18.0 0.00 0.00 0.00 89 1015.2
20260509092403 48 227 11.0 18.0 0.00 0.00 0.00 89 1015.1
20260509092305 48 222 6.0 18.0 0.00 0.00 0.00 89 1015.4
20260509092203 48 227 11.0 18.0 0.00 0.00 0.00 89 1015.1
20260509092115 48 229 7.0 14.0 0.00 0.00 0.00 89 1014.9
20260509092104 48 231 7.0 14.0 0.00 0.00 0.00 89 1014.9
20260509092004 48 233 8.0 14.0 0.00 0.00 0.00 89 1015.1
20260509091816 48 234 8.0 14.0 0.00 0.00 0.00 89 1014.9
20260509091804 48 235 6.0 13.0 0.00 0.00 0.00 89 1015.0
20260509091705 48 234 8.0 13.0 0.00 0.00 0.00 89 1014.9
20260509091504 48 219 8.0 16.0 0.00 0.00 0.00 89 1014.9
20260509091404 48 213 4.0 16.0 0.00 0.00 0.00 89 1014.8
20260509091303 48 207 4.0 16.0 0.00 0.00 0.00 89 1014.9
20260509091205 48 211 5.0 16.0 0.00 0.00 0.00 89 1014.8
20260509091105 48 219 7.0 21.0 0.00 0.00 0.00 88 1014.9
20260509091003 48 224 9.0 21.0 0.00 0.00 0.00 88 1014.5
20260509090905 48 228 5.0 21.0 0.00 0.00 0.00 88 1014.5
20260509090804 48 230 5.0 21.0 0.00 0.00 0.00 87 1014.5
20260509090704 48 229 7.0 21.0 0.00 0.00 0.00 87 1014.5
20260509090604 48 229 8.0 17.0 0.00 0.00 0.00 87 1014.5
20260509090504 48 229 9.0 17.0 0.00 0.00 0.00 87 1014.5
20260509090405 48 230 10.0 17.0 0.00 0.00 0.00 86 1014.5
20260509090304 48 233 9.0 17.0 0.00 0.00 0.00 86 1014.5
20260509090203 49 250 8.0 18.0 0.00 0.00 0.00 86 1014.5
20260509090104 49 264 10.0 18.0 0.00 0.00 0.00 85 1014.5
20260509090016 49 267 8.0 18.0 0.00 0.00 0.00 85 1014.5
20260509085903 49 264 7.0 18.0 0.00 0.00 0.00 85 1014.4
20260509085603 49 235 8.0 16.0 0.00 0.00 0.00 85 1014.5
20260509085505 49 234 7.0 16.0 0.00 0.00 0.00 85 1014.5
20260509085403 49 234 8.0 16.0 0.00 0.00 0.00 84 1014.2
20260509085306 49 215 5.0 15.0 0.00 0.00 0.00 84 1014.1
20260509085203 49 223 10.0 20.0 0.00 0.00 0.00 84 1014.1
20260509085104 49 232 10.0 20.0 0.00 0.00 0.00 84 1014.1
20260509085003 49 230 8.0 20.0 0.00 0.00 0.00 84 1014.1
20260509084903 49 233 9.0 20.0 0.00 0.00 0.00 84 1014.1
20260509084814 49 234 8.0 20.0 0.00 0.00 0.00 84 1014.1
20260509084804 49 233 8.0 20.0 0.00 0.00 0.00 84 1014.1
20260509084703 49 236 11.0 20.0 0.00 0.00 0.00 84 1014.1
20260509084503 49 229 4.0 18.0 0.00 0.00 0.00 84 1014.1
20260509084405 49 231 8.0 18.0 0.00 0.00 0.00 84 1014.1
20260509084303 49 237 9.0 18.0 0.00 0.00 0.00 84 1014.1
20260509084203 49 235 11.0 18.0 0.00 0.00 0.00 84 1014.1
20260509084106 49 241 9.0 16.0 0.00 0.00 0.00 84 1014.1
20260509084003 49 237 10.0 15.0 0.00 0.00 0.00 84 1014.1
20260509083904 49 236 8.0 15.0 0.00 0.00 0.00 84 1014.1
20260509083804 49 233 8.0 16.0 0.00 0.00 0.00 84 1014.1
20260509083703 49 237 9.0 16.0 0.00 0.00 0.00 84 1014.1
20260509083617 49 235 8.0 16.0 0.00 0.00 0.00 84 1014.1
20260509083605 49 233 8.0 16.0 0.00 0.00 0.00 84 1014.1
20260509083503 49 237 7.0 16.0 0.00 0.00 0.00 84 1014.1
20260509083303 49 238 7.0 13.0 0.00 0.00 0.00 84 1014.1
20260509083203 49 233 8.0 14.0 0.00 0.00 0.00 84 1014.1
20260509083105 49 236 7.0 14.0 0.00 0.00 0.00 84 1014.1
20260509083004 49 246 8.0 14.0 0.00 0.00 0.00 84 1014.4
20260509082904 49 246 8.0 17.0 0.00 0.00 0.00 84 1014.1
20260509082804 49 248 6.0 17.0 0.00 0.00 0.00 84 1014.1
20260509082704 49 249 10.0 17.0 0.00 0.00 0.00 84 1014.2
20260509082605 49 246 6.0 17.0 0.00 0.00 0.00 84 1013.9
20260509082505 49 236 5.0 17.0 0.00 0.00 0.00 84 1014.2
20260509082405 49 235 10.0 17.0 0.00 0.00 0.00 84 1014.1
20260509082306 49 234 10.0 17.0 0.00 0.00 0.00 84 1014.1
20260509082205 48 234 7.0 13.0 0.00 0.00 0.00 84 1014.0
20260509082116 48 240 9.0 13.0 0.00 0.00 0.00 84 1014.0
20260509082103 48 241 9.0 13.0 0.00 0.00 0.00 84 1014.0
20260509082004 48 252 6.0 13.0 0.00 0.00 0.00 84 1014.0
20260509081805 48 253 5.0 15.0 0.00 0.00 0.00 85 1014.0
20260509081705 48 255 7.0 15.0 0.00 0.00 0.00 85 1014.0
20260509081603 48 252 4.0 15.0 0.00 0.00 0.00 85 1013.9
20260509081504 48 244 4.0 16.0 0.00 0.00 0.00 85 1013.8
20260509081416 48 241 7.0 16.0 0.00 0.00 0.00 85 1013.7
20260509081403 48 241 6.0 16.0 0.00 0.00 0.00 85 1013.9
20260509081304 48 240 10.0 16.0 0.00 0.00 0.00 85 1014.0
20260509081218 48 244 9.0 16.0 0.00 0.00 0.00 85 1013.8
20260509081105 48 236 8.0 16.0 0.00 0.00 0.00 85 1013.9
20260509080903 48 235 4.0 13.0 0.00 0.00 0.00 85 1013.9
20260509080804 48 235 6.0 13.0 0.00 0.00 0.00 85 1013.7
20260509080705 48 225 6.0 13.0 0.00 0.00 0.00 85 1013.6
20260509080604 48 227 7.0 13.0 0.00 0.00 0.00 85 1013.4
20260509080513 48 231 7.0 13.0 0.00 0.00 0.00 85 1013.5
20260509080504 48 232 7.0 13.0 0.00 0.00 0.00 85 1013.5
20260509080404 48 240 4.0 13.0 0.00 0.00 0.00 85 1013.7
20260509080204 48 254 7.0 15.0 0.00 0.00 0.00 85 1013.7
20260509080103 48 257 8.0 15.0 0.00 0.00 0.00 85 1013.3
20260509080004 48 257 7.0 15.0 0.00 0.00 0.00 85 1013.6
20260509075805 48 252 7.0 15.0 0.00 0.00 0.00 85 1013.6
20260509075703 48 239 6.0 15.0 0.00 0.00 0.00 85 1013.3
20260509075603 48 238 7.0 15.0 0.00 0.00 0.00 85 1013.3
20260509075503 48 241 7.0 15.0 0.00 0.00 0.00 85 1013.4
20260509075403 48 250 8.0 15.0 0.00 0.00 0.00 85 1013.6
20260509075307 48 238 9.0 15.0 0.00 0.00 0.00 85 1013.4
20260509075203 48 240 4.0 15.0 0.00 0.00 0.00 85 1013.4
20260509075104 48 236 4.0 15.0 0.00 0.00 0.00 85 1013.4
20260509075003 48 232 7.0 15.0 0.00 0.00 0.00 85 1013.0
20260509074905 48 220 9.0 15.0 0.00 0.00 0.00 85 1013.3
20260509074803 48 223 8.0 16.0 0.00 0.00 0.00 85 1013.2
20260509074703 48 229 8.0 16.0 0.00 0.00 0.00 85 1013.4
20260509074605 48 228 6.0 16.0 0.00 0.00 0.00 85 1013.4
20260509074503 48 225 8.0 17.0 0.00 0.00 0.00 85 1013.3
20260509074403 48 223 10.0 17.0 0.00 0.00 0.00 85 1013.2
20260509074305 48 229 9.0 17.0 0.00 0.00 0.00 85 1013.3
20260509074203 48 229 8.0 17.0 0.00 0.00 0.00 85 1013.1
20260509074103 48 233 7.0 17.0 0.00 0.00 0.00 85 1013.3
20260509074003 48 237 11.0 17.0 0.00 0.00 0.00 85 1013.2
20260509073907 48 244 11.0 17.0 0.00 0.00 0.00 85 1013.1
20260509073803 48 250 8.0 11.0 0.00 0.00 0.00 85 1013.2
20260509073707 48 245 6.0 11.0 0.00 0.00 0.00 84 1013.2
20260509073504 48 256 7.0 11.0 0.00 0.00 0.00 84 1013.1
20260509073405 48 255 7.0 13.0 0.00 0.00 0.00 84 1013.0
20260509073305 48 252 4.0 13.0 0.00 0.00 0.00 84 1013.0
20260509073204 48 256 7.0 13.0 0.00 0.00 0.00 84 1013.0
20260509073105 48 253 7.0 13.0 0.00 0.00 0.00 84 1013.0
20260509073005 48 247 9.0 13.0 0.00 0.00 0.00 84 1012.9
20260509072904 48 253 8.0 14.0 0.00 0.00 0.00 84 1012.9
20260509072804 48 255 7.0 15.0 0.00 0.00 0.00 84 1013.1
20260509072705 48 255 5.0 15.0 0.00 0.00 0.00 84 1012.9
20260509072606 48 257 7.0 15.0 0.00 0.00 0.00 84 1012.9
20260509072504 48 261 8.0 15.0 0.00 0.00 0.00 84 1012.9
20260509072404 48 255 7.0 15.0 0.00 0.00 0.00 84 1012.7
20260509072306 48 252 8.0 15.0 0.00 0.00 0.00 84 1013.1
20260509072207 47 246 6.0 15.0 0.00 0.00 0.00 84 1013.0
20260509072117 47 246 9.0 15.0 0.00 0.00 0.00 84 1012.7
20260509072106 47 245 9.0 15.0 0.00 0.00 0.00 84 1012.7
20260509071803 47 233 6.0 14.0 0.00 0.00 0.00 84 1012.7
20260509071705 47 239 8.0 14.0 0.00 0.00 0.00 84 1012.8
20260509071603 47 241 8.0 14.0 0.00 0.00 0.00 84 1012.7
20260509071505 47 241 8.0 14.0 0.00 0.00 0.00 84 1012.7
20260509071404 47 247 6.0 14.0 0.00 0.00 0.00 84 1012.6
20260509071305 47 244 8.0 14.0 0.00 0.00 0.00 84 1012.8
20260509071205 47 242 7.0 16.0 0.00 0.00 0.00 84 1012.6
20260509071103 47 234 8.0 16.0 0.00 0.00 0.00 84 1012.6
20260509071016 47 234 9.0 16.0 0.00 0.00 0.00 84 1012.6
20260509071004 47 235 7.0 16.0 0.00 0.00 0.00 84 1012.7
20260509070904 47 237 8.0 16.0 0.00 0.00 0.00 84 1012.8
20260509070704 47 230 10.0 16.0 0.00 0.00 0.00 83 1012.5
20260509070603 47 234 10.0 15.0 0.00 0.00 0.00 83 1012.5
20260509070503 47 230 4.0 15.0 0.00 0.00 0.00 83 1012.7
20260509070403 47 219 5.0 15.0 0.00 0.00 0.00 83 1012.5
20260509070304 47 221 10.0 15.0 0.00 0.00 0.00 83 1012.4
20260509070203 47 225 8.0 15.0 0.00 0.00 0.00 83 1012.4
20260509070105 47 227 9.0 15.0 0.00 0.00 0.00 83 1012.5
20260509070004 47 229 7.0 13.0 0.00 0.00 0.00 83 1012.6
20260509065904 47 237 8.0 13.0 0.00 0.00 0.00 83 1012.3
20260509065803 47 235 8.0 16.0 0.00 0.00 0.00 83 1012.7
20260509065703 47 218 7.0 16.0 0.00 0.00 0.00 83 1012.5
20260509065605 47 211 8.0 16.0 0.00 0.00 0.00 83 1012.2
20260509065503 47 208 8.0 16.0 0.00 0.00 0.00 83 1012.4
20260509065403 47 209 6.0 17.0 0.00 0.00 0.00 83 1012.4
20260509065317 47 209 9.0 17.0 0.00 0.00 0.00 83 1012.4
20260509065203 47 224 10.0 17.0 0.00 0.00 0.00 83 1012.6
20260509065003 47 231 6.0 17.0 0.00 0.00 0.00 83 1012.2
20260509064905 47 231 9.0 17.0 0.00 0.00 0.00 83 1012.4
20260509064803 47 232 8.0 17.0 0.00 0.00 0.00 83 1012.6
20260509064704 47 231 7.0 17.0 0.00 0.00 0.00 83 1012.5
20260509064603 47 236 4.0 15.0 0.00 0.00 0.00 83 1012.4
20260509064403 47 252 7.0 15.0 0.00 0.00 0.00 83 1012.3
20260509064303 47 244 8.0 15.0 0.00 0.00 0.00 83 1012.3
20260509064217 47 246 4.0 15.0 0.00 0.00 0.00 82 1012.4
20260509064205 47 245 7.0 15.0 0.00 0.00 0.00 82 1012.2
20260509064104 47 235 8.0 15.0 0.00 0.00 0.00 82 1012.5
20260509063905 47 216 7.0 16.0 0.00 0.00 0.00 82 1012.6
20260509063804 47 226 4.0 16.0 0.00 0.00 0.00 82 1012.5
20260509063704 47 226 6.0 16.0 0.00 0.00 0.00 82 1012.5
20260509063613 47 227 6.0 16.0 0.00 0.00 0.00 82 1012.5
20260509063605 47 228 6.0 16.0 0.00 0.00 0.00 82 1012.5
20260509063503 47 227 6.0 22.0 0.00 0.00 0.00 82 1012.5
20260509063204 47 228 8.0 22.0 0.00 0.00 0.00 81 1012.5
20260509063105 47 232 7.0 22.0 0.00 0.00 0.00 81 1012.5
20260509063005 47 234 8.0 17.0 0.00 0.00 0.00 81 1012.5
20260509062919 47 242 9.0 17.0 0.00 0.00 0.00 81 1012.5
20260509062903 47 247 9.0 17.0 0.00 0.00 0.00 81 1012.5
20260509062803 47 256 10.0 17.0 0.00 0.00 0.00 81 1012.5
20260509062604 47 248 10.0 15.0 0.00 0.00 0.00 80 1012.5
20260509062504 47 249 6.0 14.0 0.00 0.00 0.00 80 1012.5
20260509062404 47 239 8.0 16.0 0.00 0.00 0.00 80 1012.5
20260509062306 47 233 8.0 17.0 0.00 0.00 0.00 80 1012.5
20260509062206 47 233 10.0 18.0 0.00 0.00 0.00 79 1012.5
20260509062104 47 234 5.0 18.0 0.00 0.00 0.00 79 1012.5
20260509062003 47 232 8.0 18.0 0.00 0.00 0.00 79 1012.5
20260509061904 47 236 8.0 18.0 0.00 0.00 0.00 79 1012.5
20260509061804 47 232 11.0 18.0 0.00 0.00 0.00 79 1012.3
20260509061606 47 236 8.0 18.0 0.00 0.00 0.00 78 1012.5
20260509061504 47 237 11.0 18.0 0.00 0.00 0.00 78 1012.3
20260509061403 47 241 11.0 17.0 0.00 0.00 0.00 77 1012.0
20260509061205 47 249 7.0 14.0 0.00 0.00 0.00 77 1012.3
20260509061103 47 242 5.0 17.0 0.00 0.00 0.00 77 1012.4
20260509060903 47 242 8.0 17.0 0.00 0.00 0.00 77 1012.2
20260509060803 47 224 8.0 18.0 0.00 0.00 0.00 76 1012.2
20260509060703 47 230 7.0 18.0 0.00 0.00 0.00 76 1012.6
20260509060603 47 232 11.0 18.0 0.00 0.00 0.00 76 1012.2
20260509060503 47 224 5.0 18.0 0.00 0.00 0.00 76 1012.2
20260509060404 47 224 8.0 18.0 0.00 0.00 0.00 76 1012.4
20260509060304 47 240 11.0 18.0 0.00 0.00 0.00 76 1012.4
20260509060203 47 243 4.0 16.0 0.00 0.00 0.00 75 1012.3
20260509060007 47 232 6.0 16.0 0.00 0.00 0.00 75 1012.3
20260509055905 47 232 6.0 16.0 0.00 0.00 0.00 75 1012.2
20260509055703 47 224 6.0 16.0 0.00 0.00 0.00 75 1012.1
20260509055604 47 231 7.0 14.0 0.00 0.00 0.00 75 1012.3
20260509055503 47 234 7.0 14.0 0.00 0.00 0.00 75 1012.4
20260509055403 47 236 7.0 14.0 0.00 0.00 0.00 75 1012.1
20260509055306 47 233 7.0 16.0 0.00 0.00 0.00 74 1012.5
20260509055204 47 234 8.0 16.0 0.00 0.00 0.00 74 1012.3
20260509055105 47 235 8.0 16.0 0.00 0.00 0.00 74 1012.4
20260509055004 47 239 9.0 16.0 0.00 0.00 0.00 74 1012.3
20260509054904 47 240 8.0 16.0 0.00 0.00 0.00 74 1012.4
20260509054804 47 244 8.0 16.0 0.00 0.00 0.00 74 1012.3
20260509054704 47 245 7.0 16.0 0.00 0.00 0.00 74 1012.0
20260509054605 47 244 6.0 16.0 0.00 0.00 0.00 73 1012.3
20260509054517 47 244 7.0 16.0 0.00 0.00 0.00 73 1012.2
20260509054504 47 243 7.0 16.0 0.00 0.00 0.00 73 1012.2
20260509054403 47 252 8.0 16.0 0.00 0.00 0.00 73 1012.2
20260509054217 47 269 10.0 16.0 0.00 0.00 0.00 73 1012.4
20260509054207 47 269 7.0 16.0 0.00 0.00 0.00 73 1012.0
20260509054104 47 270 6.0 13.0 0.00 0.00 0.00 73 1012.1
20260509053904 47 265 8.0 13.0 0.00 0.00 0.00 73 1012.3
20260509053805 47 254 9.0 13.0 0.00 0.00 0.00 72 1012.3
20260509053715 47 245 8.0 15.0 0.00 0.00 0.00 72 1012.1
20260509053705 47 243 8.0 15.0 0.00 0.00 0.00 72 1012.1
20260509053606 47 238 8.0 16.0 0.00 0.00 0.00 72 1012.2
20260509053517 47 240 8.0 17.0 0.00 0.00 0.00 72 1012.2
20260509053403 47 235 7.0 17.0 0.00 0.00 0.00 72 1012.3
20260509053204 47 235 8.0 17.0 0.00 0.00 0.00 72 1012.1
20260509053103 47 242 8.0 17.0 0.00 0.00 0.00 71 1012.2
20260509053005 47 242 10.0 14.0 0.00 0.00 0.00 71 1012.1
20260509052914 47 244 8.0 14.0 0.00 0.00 0.00 71 1012.4
20260509052904 47 242 8.0 14.0 0.00 0.00 0.00 71 1012.4
20260509052812 47 236 7.0 14.0 0.00 0.00 0.00 71 1012.2
20260509052604 47 230 4.0 8.0 0.00 0.00 0.00 71 1012.2
20260509052505 47 226 4.0 7.0 0.00 0.00 0.00 71 1011.9
20260509052417 47 240 3.0 11.0 0.00 0.00 0.00 71 1012.1
20260509052307 47 253 3.0 11.0 0.00 0.00 0.00 71 1012.1
20260509052118 47 256 4.0 14.0 0.00 0.00 0.00 71 1012.2
20260509052106 47 254 4.0 14.0 0.00 0.00 0.00 71 1012.2
20260509052003 47 252 4.0 14.0 0.00 0.00 0.00 71 1011.7
20260509051803 47 246 6.0 15.0 0.00 0.00 0.00 71 1012.1
20260509051705 47 249 7.0 15.0 0.00 0.00 0.00 70 1012.0
20260509051605 47 251 8.0 16.0 0.00 0.00 0.00 70 1012.2
20260509051507 47 254 7.0 16.0 0.00 0.00 0.00 70 1012.0
20260509051405 47 252 8.0 16.0 0.00 0.00 0.00 70 1012.0
20260509051317 47 243 6.0 16.0 0.00 0.00 0.00 70 1012.0
20260509051303 47 244 6.0 16.0 0.00 0.00 0.00 70 1012.0
20260509051203 47 243 8.0 16.0 0.00 0.00 0.00 70 1012.0
20260509051005 47 234 9.0 15.0 0.00 0.00 0.00 70 1012.0
20260509050903 47 233 8.0 13.0 0.00 0.00 0.00 70 1012.0
20260509050805 47 236 5.0 13.0 0.00 0.00 0.00 70 1012.1
20260509050703 47 228 5.0 13.0 0.00 0.00 0.00 70 1012.1
20260509050605 47 236 6.0 17.0 0.00 0.00 0.00 70 1012.1
20260509050503 47 239 7.0 17.0 0.00 0.00 0.00 70 1012.1
20260509050414 47 237 7.0 17.0 0.00 0.00 0.00 70 1011.8
20260509050405 47 240 7.0 17.0 0.00 0.00 0.00 70 1011.8
20260509050303 47 239 5.0 20.0 0.00 0.00 0.00 70 1011.8
20260509050004 48 223 9.0 20.0 0.00 0.00 0.00 69 1011.9
20260509045903 47 212 10.0 20.0 0.00 0.00 0.00 69 1012.0
20260509045803 48 212 9.0 18.0 0.00 0.00 0.00 69 1011.9
20260509045703 47 205 11.0 18.0 0.00 0.00 0.00 69 1012.1
20260509045603 47 216 8.0 18.0 0.00 0.00 0.00 70 1011.9
20260509045504 48 229 10.0 18.0 0.00 0.00 0.00 69 1011.9
20260509045404 47 245 4.0 18.0 0.00 0.00 0.00 69 1011.8
20260509045319 48 242 9.0 18.0 0.00 0.00 0.00 69 1011.6
20260509045206 47 244 9.0 18.0 0.00 0.00 0.00 69 1011.8
20260509045116 48 240 9.0 15.0 0.00 0.00 0.00 69 1011.9
20260509045004 48 233 8.0 13.0 0.00 0.00 0.00 69 1011.9
20260509044805 48 247 7.0 13.0 0.00 0.00 0.00 69 1012.0
20260509044704 48 250 8.0 14.0 0.00 0.00 0.00 69 1011.8
20260509044605 48 247 8.0 14.0 0.00 0.00 0.00 69 1011.6
20260509044504 48 251 7.0 15.0 0.00 0.00 0.00 69 1011.7
20260509044403 48 261 7.0 15.0 0.00 0.00 0.00 69 1011.7
20260509044205 48 234 7.0 15.0 0.00 0.00 0.00 69 1011.9
20260509044104 48 228 8.0 15.0 0.00 0.00 0.00 69 1011.8
20260509043904 48 226 6.0 14.0 0.00 0.00 0.00 69 1011.9
20260509043805 48 236 7.0 16.0 0.00 0.00 0.00 69 1011.9
20260509043707 48 249 10.0 16.0 0.00 0.00 0.00 69 1011.9
20260509043605 48 267 5.0 16.0 0.00 0.00 0.00 69 1011.7
20260509043505 48 263 8.0 16.0 0.00 0.00 0.00 69 1011.8
20260509043403 48 256 8.0 16.0 0.00 0.00 0.00 69 1011.7
20260509043305 48 236 5.0 14.0 0.00 0.00 0.00 69 1011.7
20260509043204 48 226 7.0 15.0 0.00 0.00 0.00 69 1011.9
20260509043104 48 223 6.0 15.0 0.00 0.00 0.00 68 1011.8
20260509043004 48 228 9.0 15.0 0.00 0.00 0.00 68 1011.9
20260509042903 48 234 8.0 17.0 0.00 0.00 0.00 68 1011.8
20260509042804 48 242 8.0 17.0 0.00 0.00 0.00 68 1011.9
20260509042704 48 245 8.0 17.0 0.00 0.00 0.00 69 1011.8
20260509042605 48 243 5.0 17.0 0.00 0.00 0.00 69 1011.9
20260509042504 48 240 7.0 17.0 0.00 0.00 0.00 69 1011.7
20260509042404 48 237 9.0 17.0 0.00 0.00 0.00 68 1011.7
20260509042306 48 228 9.0 18.0 0.00 0.00 0.00 69 1011.8
20260509042205 48 227 9.0 18.0 0.00 0.00 0.00 69 1011.7
20260509042103 48 231 7.0 18.0 0.00 0.00 0.00 68 1011.7
20260509042005 48 232 9.0 18.0 0.00 0.00 0.00 68 1011.5
20260509041904 48 234 7.0 18.0 0.00 0.00 0.00 68 1011.7
20260509041705 48 239 7.0 16.0 0.00 0.00 0.00 68 1011.7
20260509041603 48 236 8.0 16.0 0.00 0.00 0.00 68 1011.6
20260509041503 48 232 8.0 16.0 0.00 0.00 0.00 68 1011.6
20260509041404 48 225 9.0 16.0 0.00 0.00 0.00 68 1011.6
20260509041304 48 225 9.0 16.0 0.00 0.00 0.00 68 1011.6
20260509041205 48 225 6.0 13.0 0.00 0.00 0.00 68 1011.6
20260509041004 48 249 8.0 16.0 0.00 0.00 0.00 68 1011.6
20260509040903 48 251 8.0 18.0 0.00 0.00 0.00 68 1011.6
20260509040704 48 249 5.0 18.0 0.00 0.00 0.00 68 1011.5
20260509040616 48 247 10.0 18.0 0.00 0.00 0.00 68 1011.5
20260509040605 48 244 8.0 18.0 0.00 0.00 0.00 68 1011.5
20260509040504 48 242 9.0 18.0 0.00 0.00 0.00 68 1011.6
20260509040303 48 228 9.0 18.0 0.00 0.00 0.00 68 1011.5
20260509040204 48 233 8.0 17.0 0.00 0.00 0.00 67 1011.5
20260509040105 48 238 11.0 17.0 0.00 0.00 0.00 67 1011.4
20260509040004 48 236 9.0 17.0 0.00 0.00 0.00 67 1011.3
20260509035905 48 236 7.0 17.0 0.00 0.00 0.00 67 1011.3
20260509035815 48 239 7.0 17.0 0.00 0.00 0.00 67 1011.3
20260509035804 48 238 8.0 17.0 0.00 0.00 0.00 67 1011.4
20260509035617 48 233 10.0 15.0 0.00 0.00 0.00 67 1011.3
20260509035505 48 236 7.0 16.0 0.00 0.00 0.00 67 1011.2
20260509035306 48 235 9.0 20.0 0.00 0.00 0.00 67 1011.2
20260509035204 48 237 11.0 20.0 0.00 0.00 0.00 67 1011.1
20260509035105 48 231 9.0 20.0 0.00 0.00 0.00 67 1011.2
20260509034804 48 241 8.0 16.0 0.00 0.00 0.00 67 1011.1
20260509034705 48 237 5.0 16.0 0.00 0.00 0.00 67 1010.9
20260509034618 48 241 8.0 16.0 0.00 0.00 0.00 67 1011.6
20260509034604 48 244 11.0 18.0 0.00 0.00 0.00 67 1011.2
20260509034503 48 238 10.0 18.0 0.00 0.00 0.00 67 1011.0
20260509034303 48 227 10.0 18.0 0.00 0.00 0.00 67 1011.3
20260509034203 49 226 8.0 18.0 0.00 0.00 0.00 67 1011.0
20260509034008 49 224 9.0 16.0 0.00 0.00 0.00 67 1011.0
20260509033903 49 231 10.0 16.0 0.00 0.00 0.00 67 1011.0
20260509033804 49 231 11.0 16.0 0.00 0.00 0.00 67 1011.1
20260509033715 49 233 8.0 15.0 0.00 0.00 0.00 67 1011.1
20260509033704 49 236 8.0 15.0 0.00 0.00 0.00 67 1011.1
20260509033603 49 250 10.0 15.0 0.00 0.00 0.00 67 1011.1
20260509033416 49 244 7.0 15.0 0.00 0.00 0.00 67 1011.1
20260509033403 49 243 9.0 15.0 0.00 0.00 0.00 67 1010.8
20260509033315 49 245 9.0 16.0 0.00 0.00 0.00 67 1010.8
20260509033303 49 246 9.0 16.0 0.00 0.00 0.00 67 1010.8
20260509033117 49 242 7.0 16.0 0.00 0.00 0.00 66 1010.7
20260509033016 49 245 8.0 16.0 0.00 0.00 0.00 66 1010.9
20260509033004 49 246 9.0 16.0 0.00 0.00 0.00 67 1011.0
20260509032703 49 263 6.0 13.0 0.00 0.00 0.00 67 1010.8
20260509032604 49 260 7.0 16.0 0.00 0.00 0.00 66 1011.1
20260509032404 49 256 8.0 16.0 0.00 0.00 0.00 66 1010.9
20260509032306 49 252 7.0 23.0 0.00 0.00 0.00 66 1010.8
20260509032203 49 243 10.0 23.0 0.00 0.00 0.00 66 1010.9
20260509032005 49 240 6.0 23.0 0.00 0.00 0.00 66 1010.8
20260509031904 49 236 8.0 23.0 0.00 0.00 0.00 66 1010.9
20260509031804 49 230 11.0 18.0 0.00 0.00 0.00 67 1010.8
20260509031705 49 232 8.0 14.0 0.00 0.00 0.00 67 1010.8
20260509031608 49 231 4.0 14.0 0.00 0.00 0.00 68 1010.9
20260509031503 49 235 4.0 14.0 0.00 0.00 0.00 68 1010.8
20260509031418 49 238 5.0 14.0 0.00 0.00 0.00 68 1010.7
20260509031405 49 238 6.0 14.0 0.00 0.00 0.00 68 1011.0
20260509031304 49 235 7.0 14.0 0.00 0.00 0.00 68 1010.8
20260509031104 49 227 5.0 15.0 0.00 0.00 0.00 68 1010.5
20260509031004 49 233 8.0 15.0 0.00 0.00 0.00 68 1010.7
20260509030803 49 244 8.0 15.0 0.00 0.00 0.00 67 1010.8
20260509030704 49 250 9.0 15.0 0.00 0.00 0.00 68 1010.6
20260509030604 49 243 9.0 17.0 0.00 0.00 0.00 68 1010.7
20260509030515 49 232 8.0 17.0 0.00 0.00 0.00 68 1010.5
20260509030503 49 231 8.0 17.0 0.00 0.00 0.00 68 1010.5
20260509030404 49 230 8.0 17.0 0.00 0.00 0.00 68 1010.6
20260509030216 49 229 8.0 17.0 0.00 0.00 0.00 68 1010.7
20260509030203 49 229 9.0 17.0 0.00 0.00 0.00 68 1010.6
20260509030105 49 240 9.0 16.0 0.00 0.00 0.00 68 1010.6
20260509030013 49 247 9.0 16.0 0.00 0.00 0.00 68 1010.8
20260509025903 49 246 9.0 16.0 0.00 0.00 0.00 68 1010.6
20260509025705 49 244 7.0 11.0 0.00 0.00 0.00 68 1010.8
20260509025605 49 239 7.0 11.0 0.00 0.00 0.00 68 1010.5
20260509025504 49 240 7.0 11.0 0.00 0.00 0.00 68 1010.8
20260509025415 49 242 5.0 13.0 0.00 0.00 0.00 68 1010.9
20260509025404 49 241 4.0 13.0 0.00 0.00 0.00 68 1010.8
20260509025306 49 243 5.0 13.0 0.00 0.00 0.00 68 1010.7
20260509025104 49 238 7.0 13.0 0.00 0.00 0.00 68 1010.7
20260509025009 49 238 8.0 13.0 0.00 0.00 0.00 67 1010.6
20260509024905 49 236 4.0 9.0 0.00 0.00 0.00 67 1010.5
20260509024805 49 243 4.0 9.0 0.00 0.00 0.00 67 1010.6
20260509024705 49 250 5.0 9.0 0.00 0.00 0.00 67 1010.7
20260509024603 49 251 5.0 11.0 0.00 0.00 0.00 67 1010.4
20260509024505 49 251 4.0 11.0 0.00 0.00 0.00 66 1010.8
20260509024403 49 253 4.0 11.0 0.00 0.00 0.00 66 1010.4
20260509024303 50 251 6.0 11.0 0.00 0.00 0.00 66 1010.7
20260509024207 50 247 6.0 11.0 0.00 0.00 0.00 66 1010.4
20260509024103 50 247 5.0 15.0 0.00 0.00 0.00 66 1010.4
20260509024003 50 247 4.0 15.0 0.00 0.00 0.00 65 1010.4
20260509023919 50 245 4.0 15.0 0.00 0.00 0.00 65 1010.4
20260509023903 50 244 4.0 15.0 0.00 0.00 0.00 65 1010.4
20260509023803 50 239 6.0 15.0 0.00 0.00 0.00 65 1010.5
20260509023603 50 231 9.0 15.0 0.00 0.00 0.00 64 1010.4
20260509023507 50 227 8.0 13.0 0.00 0.00 0.00 64 1010.4
20260509023403 50 219 7.0 13.0 0.00 0.00 0.00 64 1010.1
20260509023303 50 216 5.0 13.0 0.00 0.00 0.00 64 1010.4
20260509023205 50 219 5.0 13.0 0.00 0.00 0.00 64 1010.4
20260509023105 50 219 4.0 13.0 0.00 0.00 0.00 64 1010.3
20260509023016 50 220 5.0 13.0 0.00 0.00 0.00 64 1010.2
20260509023004 50 221 9.0 13.0 0.00 0.00 0.00 64 1010.2
20260509022904 50 231 7.0 13.0 0.00 0.00 0.00 64 1010.2
20260509022813 50 237 5.0 13.0 0.00 0.00 0.00 64 1010.0
20260509022707 50 239 6.0 13.0 0.00 0.00 0.00 64 1010.3
20260509022616 50 242 7.0 13.0 0.00 0.00 0.00 63 1010.4
20260509022504 50 246 5.0 13.0 0.00 0.00 0.00 63 1010.2
20260509022306 50 247 8.0 13.0 0.00 0.00 0.00 63 1010.2
20260509022206 50 250 6.0 11.0 0.00 0.00 0.00 63 1010.1
20260509022104 50 253 5.0 11.0 0.00 0.00 0.00 63 1010.1
20260509022005 50 254 6.0 11.0 0.00 0.00 0.00 63 1010.1
20260509021903 50 248 8.0 11.0 0.00 0.00 0.00 63 1010.0
20260509021804 50 247 5.0 11.0 0.00 0.00 0.00 63 1010.2
20260509021705 50 233 5.0 16.0 0.00 0.00 0.00 63 1010.1
20260509021617 50 229 5.0 16.0 0.00 0.00 0.00 63 1009.9
20260509021604 50 227 5.0 16.0 0.00 0.00 0.00 63 1009.9
20260509021504 50 224 6.0 16.0 0.00 0.00 0.00 62 1010.0
20260509021216 50 235 8.0 16.0 0.00 0.00 0.00 62 1009.8
20260509021204 50 237 8.0 16.0 0.00 0.00 0.00 62 1009.8
20260509021103 50 238 8.0 16.0 0.00 0.00 0.00 62 1009.8
20260509020904 50 236 5.0 11.0 0.00 0.00 0.00 63 1009.6
20260509020806 50 235 4.0 11.0 0.00 0.00 0.00 63 1009.8
20260509020704 50 229 6.0 11.0 0.00 0.00 0.00 63 1009.9
20260509020604 50 233 5.0 13.0 0.00 0.00 0.00 62 1009.7
20260509020504 50 239 4.0 13.0 0.00 0.00 0.00 62 1009.5
20260509020404 50 236 4.0 13.0 0.00 0.00 0.00 62 1009.6
20260509020204 50 236 5.0 14.0 0.00 0.00 0.00 62 1009.6
20260509020104 50 229 7.0 15.0 0.00 0.00 0.00 62 1009.7
20260509020004 50 232 5.0 15.0 0.00 0.00 0.00 62 1009.8
20260509015903 50 235 7.0 15.0 0.00 0.00 0.00 62 1009.6
20260509015805 50 231 5.0 15.0 0.00 0.00 0.00 61 1009.9
20260509015715 51 230 8.0 15.0 0.00 0.00 0.00 61 1009.8
20260509015703 51 232 8.0 15.0 0.00 0.00 0.00 61 1009.8
20260509015605 50 234 8.0 15.0 0.00 0.00 0.00 61 1009.8
20260509015404 51 230 8.0 14.0 0.00 0.00 0.00 61 1009.7
20260509015306 51 236 4.0 14.0 0.00 0.00 0.00 60 1009.8
20260509015203 51 244 8.0 14.0 0.00 0.00 0.00 60 1010.0
20260509015104 51 238 6.0 13.0 0.00 0.00 0.00 60 1009.7
20260509015003 51 239 5.0 13.0 0.00 0.00 0.00 60 1009.8
20260509014803 51 236 8.0 14.0 0.00 0.00 0.00 60 1009.7
20260509014706 50 232 7.0 14.0 0.00 0.00 0.00 60 1009.6
20260509014605 51 248 8.0 14.0 0.00 0.00 0.00 59 1009.7
20260509014503 51 248 6.0 14.0 0.00 0.00 0.00 59 1009.7
20260509014403 51 244 6.0 15.0 0.00 0.00 0.00 59 1009.5
20260509014303 51 244 9.0 15.0 0.00 0.00 0.00 59 1009.6
20260509014205 50 252 8.0 15.0 0.00 0.00 0.00 58 1009.5
20260509014108 50 244 6.0 15.0 0.00 0.00 0.00 58 1009.4
20260509014004 50 238 6.0 15.0 0.00 0.00 0.00 58 1009.5
20260509013904 50 239 8.0 15.0 0.00 0.00 0.00 58 1009.5
20260509013804 50 236 7.0 11.0 0.00 0.00 0.00 57 1009.5
20260509013717 50 228 6.0 11.0 0.00 0.00 0.00 57 1009.5
20260509013704 50 227 6.0 11.0 0.00 0.00 0.00 57 1009.5
20260509013607 50 227 6.0 14.0 0.00 0.00 0.00 57 1009.5
20260509013514 50 233 6.0 14.0 0.00 0.00 0.00 56 1009.4
20260509013204 50 240 5.0 14.0 0.00 0.00 0.00 55 1009.4
20260509013106 50 238 6.0 14.0 0.00 0.00 0.00 55 1009.5
20260509013004 50 233 4.0 9.0 0.00 0.00 0.00 55 1009.5
20260509012915 50 237 8.0 9.0 0.00 0.00 0.00 54 1009.4
20260509012904 50 238 8.0 9.0 0.00 0.00 0.00 54 1009.4
20260509012804 50 239 5.0 9.0 0.00 0.00 0.00 54 1009.2
20260509012604 50 235 4.0 9.0 0.00 0.00 0.00 54 1009.0
20260509012504 50 233 4.0 9.0 0.00 0.00 0.00 54 1009.1
20260509012404 50 225 2.0 6.0 0.00 0.00 0.00 54 1009.0
20260509012307 50 224 2.0 6.0 0.00 0.00 0.00 54 1009.1
20260509012216 50 225 3.0 9.0 0.00 0.00 0.00 53 1009.0
20260509012204 50 227 3.0 9.0 0.00 0.00 0.00 53 1009.1
20260509011906 50 238 2.0 9.0 0.00 0.00 0.00 53 1008.7
20260509011803 50 249 6.0 9.0 0.00 0.00 0.00 53 1008.8
20260509011704 49 270 4.0 7.0 0.00 0.00 0.00 53 1008.8
20260509011617 49 273 2.0 7.0 0.00 0.00 0.00 53 1008.5
20260509011604 49 272 2.0 7.0 0.00 0.00 0.00 53 1008.5
20260509011504 49 274 3.0 7.0 0.00 0.00 0.00 53 1008.7
20260509011303 49 253 3.0 7.0 0.00 0.00 0.00 53 1008.6
20260509011204 49 238 4.0 7.0 0.00 0.00 0.00 53 1008.9
20260509011103 49 236 2.0 6.0 0.00 0.00 0.00 53 1008.6
20260509011005 49 235 2.0 6.0 0.00 0.00 0.00 53 1008.8
20260509010816 49 236 3.0 6.0 0.00 0.00 0.00 53 1008.6
20260509010704 49 237 3.0 6.0 0.00 0.00 0.00 52 1008.8
20260509010517 49 236 2.0 4.0 0.00 0.00 0.00 53 1008.6
20260509010508 49 238 2.0 4.0 0.00 0.00 0.00 53 1008.6
20260509010403 49 241 2.0 4.0 0.00 0.00 0.00 52 1008.6
20260509010314 49 239 2.0 4.0 0.00 0.00 0.00 53 1008.6
20260509010205 49 243 2.0 4.0 0.00 0.00 0.00 52 1008.4
20260509010007 49 251 3.0 4.0 0.00 0.00 0.00 53 1008.6
20260509005904 49 245 2.0 4.0 0.00 0.00 0.00 53 1008.8
20260509005607 49 243 2.0 4.0 0.00 0.00 0.00 53 1008.4
20260509005503 49 235 2.0 4.0 0.00 0.00 0.00 53 1008.5
20260509005403 49 234 2.0 4.0 0.00 0.00 0.00 53 1008.3
20260509005315 49 231 2.0 4.0 0.00 0.00 0.00 53 1008.5
20260509005306 49 233 2.0 4.0 0.00 0.00 0.00 53 1008.5
20260509005206 49 236 2.0 4.0 0.00 0.00 0.00 53 1008.4
20260509005005 49 240 2.0 4.0 0.00 0.00 0.00 53 1008.3
20260509004905 49 242 2.0 4.0 0.00 0.00 0.00 53 1008.4
20260509004803 49 242 2.0 4.0 0.00 0.00 0.00 52 1008.5
20260509004705 49 242 2.0 4.0 0.00 0.00 0.00 52 1008.4
20260509004615 49 243 1.0 4.0 0.00 0.00 0.00 53 1008.5
20260509004604 49 243 2.0 4.0 0.00 0.00 0.00 53 1008.2
20260509004504 49 250 2.0 4.0 0.00 0.00 0.00 52 1008.3
20260509004305 49 258 2.0 2.0 0.00 0.00 0.00 53 1008.3
20260509004207 49 259 1.0 2.0 0.00 0.00 0.00 52 1008.4
20260509004104 49 259 1.0 2.0 0.00 0.00 0.00 52 1008.3
20260509004004 49 255 1.0 2.0 0.00 0.00 0.00 52 1008.3
20260509003904 49 254 2.0 2.0 0.00 0.00 0.00 52 1008.5
20260509003804 49 253 1.0 4.0 0.00 0.00 0.00 51 1007.9
20260509003705 49 254 2.0 4.0 0.00 0.00 0.00 51 1008.2
20260509003603 49 253 1.0 4.0 0.00 0.00 0.00 51 1008.2
20260509003504 49 252 1.0 4.0 0.00 0.00 0.00 51 1008.1
20260509003404 49 253 2.0 4.0 0.00 0.00 0.00 50 1008.3
20260509003304 49 260 1.0 2.0 0.00 0.00 0.00 50 1008.1
20260509003203 50 265 0.0 2.0 0.00 0.00 0.00 50 1008.1
20260509003104 50 269 0.0 2.0 0.00 0.00 0.00 50 1008.2
20260509003005 50 265 2.0 2.0 0.00 0.00 0.00 49 1008.1
20260509002904 50 267 2.0 2.0 0.00 0.00 0.00 49 1008.1
20260509002809 50 265 1.0 2.0 0.00 0.00 0.00 49 1008.0
20260509002704 50 264 0.0 2.0 0.00 0.00 0.00 49 1008.0
20260509002605 50 257 2.0 2.0 0.00 0.00 0.00 48 1008.0
20260509002515 50 264 2.0 2.0 0.00 0.00 0.00 48 1008.0
20260509002504 50 262 2.0 2.0 0.00 0.00 0.00 48 1008.0
20260509002405 50 258 2.0 2.0 0.00 0.00 0.00 48 1007.9
20260509002216 50 262 2.0 2.0 0.00 0.00 0.00 48 1007.9
20260509002204 50 260 2.0 4.0 0.00 0.00 0.00 47 1007.9
20260509002105 50 248 1.0 4.0 0.00 0.00 0.00 48 1007.8
20260509002013 50 242 2.0 4.0 0.00 0.00 0.00 48 1007.7
20260509001904 50 244 1.0 4.0 0.00 0.00 0.00 48 1007.8
20260509001816 50 236 1.0 4.0 0.00 0.00 0.00 47 1007.8
20260509001704 50 236 2.0 4.0 0.00 0.00 0.00 47 1008.0
20260509001503 50 232 3.0 4.0 0.00 0.00 0.00 47 1007.8
20260509001404 50 228 2.0 4.0 0.00 0.00 0.00 47 1007.9
20260509001310 50 228 2.0 4.0 0.00 0.00 0.00 47 1007.7
20260509001205 50 226 2.0 4.0 0.00 0.00 0.00 47 1008.0
20260509001104 50 224 2.0 4.0 0.00 0.00 0.00 48 1007.9
20260509001003 50 228 2.0 4.0 0.00 0.00 0.00 48 1007.5
20260509000904 50 236 1.0 4.0 0.00 0.00 0.00 49 1007.8
20260509000703 50 235 1.0 4.0 0.00 0.00 0.00 48 1007.8
20260509000605 50 210 2.0 7.0 0.00 0.00 0.00 48 1007.7
20260509000517 50 217 2.0 7.0 0.00 0.00 0.00 48 1007.5
20260509000503 50 213 2.0 7.0 0.00 0.00 0.00 48 1007.5
20260509000405 50 210 2.0 7.0 0.00 0.00 0.00 48 1007.6
20260509000104 50 229 2.0 4.0 0.00 0.00 0.00 49 1007.6
20260509000004 50 229 2.0 4.0 0.00 0.00 0.00 50 1007.5
20260508235903 50 228 2.0 4.0 0.00 0.00 0.00 51 1007.6
20260508235803 50 225 1.0 2.0 0.00 0.00 0.00 52 1007.6
20260508235704 50 225 0.0 2.0 0.00 0.00 0.00 52 1007.5
20260508235603 50 225 0.0 2.0 0.00 0.00 0.00 52 1007.5
20260508235503 50 225 0.0 2.0 0.00 0.00 0.00 52 1007.4
20260508235403 50 227 0.0 2.0 0.00 0.00 0.00 51 1007.4
20260508235306 49 229 0.0 2.0 0.00 0.00 0.00 51 1007.3
20260508235204 49 232 1.0 2.0 0.00 0.00 0.00 50 1007.3
20260508235103 49 236 0.0 2.0 0.00 0.00 0.00 50 1007.3
20260508235007 50 240 2.0 2.0 0.00 0.00 0.00 49 1007.3
20260508234905 50 246 1.0 2.0 0.00 0.00 0.00 50 1007.1
20260508234804 50 255 1.0 2.0 0.00 0.00 0.00 50 1007.3
20260508234705 50 256 1.0 2.0 0.00 0.00 0.00 50 1006.9
20260508234604 50 258 2.0 2.0 0.00 0.00 0.00 49 1006.7
20260508234504 50 268 0.0 2.0 0.00 0.00 0.00 50 1007.2
20260508234405 50 272 0.0 2.0 0.00 0.00 0.00 50 1006.8
20260508234304 50 269 1.0 2.0 0.00 0.00 0.00 48 1006.8
20260508234207 50 275 0.0 2.0 0.00 0.00 0.00 48 1007.1
20260508234103 50 273 0.0 4.0 0.00 0.00 0.00 48 1006.6
20260508234003 50 274 0.0 4.0 0.00 0.00 0.00 47 1006.8
20260508233803 50 288 1.0 4.0 0.00 0.00 0.00 47 1006.8
20260508233707 50 292 0.0 4.0 0.00 0.00 0.00 47 1007.2
20260508233604 50 289 2.0 4.0 0.00 0.00 0.00 46 1006.8
20260508233504 50 288 2.0 2.0 0.00 0.00 0.00 46 1006.9
20260508233404 50 278 0.0 2.0 0.00 0.00 0.00 47 1007.0
20260508233206 51 265 1.0 2.0 0.00 0.00 0.00 47 1006.9
20260508233105 51 268 2.0 2.0 0.00 0.00 0.00 47 1006.7
20260508233018 51 270 1.0 2.0 0.00 0.00 0.00 47 1007.0
20260508233003 51 268 2.0 2.0 0.00 0.00 0.00 47 1007.0
20260508232903 51 258 0.0 2.0 0.00 0.00 0.00 47 1007.0
20260508232815 51 252 1.0 2.0 0.00 0.00 0.00 47 1006.7
20260508232705 51 247 0.0 2.0 0.00 0.00 0.00 49 1006.8
20260508232505 51 247 0.0 2.0 0.00 0.00 0.00 47 1006.8
20260508232403 51 247 1.0 2.0 0.00 0.00 0.00 46 1006.9
20260508232318 51 247 0.0 2.0 0.00 0.00 0.00 47 1007.0
20260508232203 51 247 1.0 2.0 0.00 0.00 0.00 46 1006.8
20260508232004 51 247 1.0 2.0 0.00 0.00 0.00 46 1006.8
20260508231905 51 251 1.0 2.0 0.00 0.00 0.00 47 1007.0
20260508231803 51 268 1.0 2.0 0.00 0.00 0.00 47 1006.9
20260508231703 51 278 0.0 2.0 0.00 0.00 0.00 48 1006.7
20260508231605 51 278 0.0 2.0 0.00 0.00 0.00 48 1006.8
20260508231504 51 286 1.0 2.0 0.00 0.00 0.00 46 1006.5
20260508231407 51 302 1.0 2.0 0.00 0.00 0.00 46 1006.8
20260508231203 52 279 0.0 2.0 0.00 0.00 0.00 47 1006.7
20260508231104 52 269 0.0 2.0 0.00 0.00 0.00 46 1006.8
20260508231005 52 263 0.0 2.0 0.00 0.00 0.00 45 1006.7
20260508230904 52 257 1.0 2.0 0.00 0.00 0.00 44 1006.7
20260508230805 52 249 0.0 2.0 0.00 0.00 0.00 43 1007.0
20260508230704 52 246 1.0 2.0 0.00 0.00 0.00 43 1006.8
20260508230606 52 240 1.0 2.0 0.00 0.00 0.00 43 1006.9
20260508230503 52 242 1.0 2.0 0.00 0.00 0.00 43 1006.7
20260508230404 52 240 1.0 2.0 0.00 0.00 0.00 42 1006.8
20260508230303 52 240 2.0 2.0 0.00 0.00 0.00 42 1006.8
20260508230205 52 240 2.0 2.0 0.00 0.00 0.00 42 1006.7
20260508230105 52 244 2.0 2.0 0.00 0.00 0.00 42 1006.8
20260508230005 52 244 1.0 2.0 0.00 0.00 0.00 42 1006.8
20260508225914 52 246 2.0 2.0 0.00 0.00 0.00 42 1006.6
20260508225804 52 247 2.0 4.0 0.00 0.00 0.00 42 1006.7
20260508225717 52 247 1.0 4.0 0.00 0.00 0.00 42 1006.5
20260508225604 52 247 2.0 4.0 0.00 0.00 0.00 42 1006.5
20260508225514 52 247 2.0 4.0 0.00 0.00 0.00 42 1006.7
20260508225417 52 254 2.0 4.0 0.00 0.00 0.00 42 1006.6
20260508225404 52 256 2.0 4.0 0.00 0.00 0.00 42 1006.8
20260508225104 53 260 2.0 4.0 0.00 0.00 0.00 42 1006.8
20260508225004 53 260 2.0 4.0 0.00 0.00 0.00 42 1006.8
20260508224805 53 243 2.0 4.0 0.00 0.00 0.00 41 1006.7
20260508224704 53 243 2.0 4.0 0.00 0.00 0.00 41 1006.6
20260508224604 53 241 2.0 4.0 0.00 0.00 0.00 42 1006.5
20260508224506 53 239 2.0 4.0 0.00 0.00 0.00 42 1006.8
20260508224404 53 238 2.0 4.0 0.00 0.00 0.00 42 1006.5
20260508224317 53 241 2.0 4.0 0.00 0.00 0.00 42 1006.3
20260508224204 53 239 1.0 4.0 0.00 0.00 0.00 42 1006.3
20260508224004 53 240 2.0 4.0 0.00 0.00 0.00 42 1006.3
20260508223906 53 245 2.0 4.0 0.00 0.00 0.00 41 1006.4
20260508223820 53 245 3.0 4.0 0.00 0.00 0.00 41 1006.4
20260508223803 53 246 2.0 4.0 0.00 0.00 0.00 41 1006.3
20260508223704 53 248 2.0 4.0 0.00 0.00 0.00 41 1006.4
20260508223505 53 243 2.0 4.0 0.00 0.00 0.00 41 1006.4
20260508223408 53 240 2.0 4.0 0.00 0.00 0.00 41 1006.2
20260508223304 53 237 2.0 4.0 0.00 0.00 0.00 41 1006.3
20260508223103 53 233 2.0 4.0 0.00 0.00 0.00 41 1006.2
20260508223003 53 234 2.0 4.0 0.00 0.00 0.00 41 1006.3
20260508222904 53 230 2.0 4.0 0.00 0.00 0.00 41 1006.4
20260508222805 53 229 2.0 4.0 0.00 0.00 0.00 41 1006.4
20260508222703 53 229 3.0 4.0 0.00 0.00 0.00 40 1006.5
20260508222503 53 242 2.0 6.0 0.00 0.00 0.00 40 1006.4
20260508222406 53 242 2.0 6.0 0.00 0.00 0.00 40 1006.2
20260508222306 53 243 2.0 6.0 0.00 0.00 0.00 40 1006.1
20260508222207 53 246 2.0 6.0 0.00 0.00 0.00 39 1006.2
20260508222105 53 239 1.0 6.0 0.00 0.00 0.00 40 1006.4
20260508222005 53 241 2.0 6.0 0.00 0.00 0.00 40 1006.3
20260508221905 53 249 2.0 6.0 0.00 0.00 0.00 39 1006.2
20260508221704 54 252 3.0 4.0 0.00 0.00 0.00 39 1006.3
20260508221603 54 248 4.0 6.0 0.00 0.00 0.00 39 1006.2
20260508221503 54 248 2.0 6.0 0.00 0.00 0.00 39 1006.4
20260508221405 54 241 2.0 6.0 0.00 0.00 0.00 38 1006.0
20260508221303 54 238 3.0 6.0 0.00 0.00 0.00 38 1006.2
20260508221203 54 247 2.0 6.0 0.00 0.00 0.00 38 1006.3
20260508221104 54 251 3.0 6.0 0.00 0.00 0.00 38 1006.2
20260508221005 54 253 3.0 6.0 0.00 0.00 0.00 37 1006.1
20260508220904 54 255 2.0 6.0 0.00 0.00 0.00 37 1005.9
20260508220806 54 255 2.0 6.0 0.00 0.00 0.00 37 1006.2
20260508220703 54 252 4.0 6.0 0.00 0.00 0.00 37 1006.3
20260508220605 54 251 3.0 4.0 0.00 0.00 0.00 37 1006.0
20260508220504 54 254 3.0 4.0 0.00 0.00 0.00 37 1006.1
20260508220404 54 252 2.0 4.0 0.00 0.00 0.00 37 1006.0
20260508220307 54 247 3.0 4.0 0.00 0.00 0.00 36 1005.9
20260508220204 54 246 2.0 4.0 0.00 0.00 0.00 36 1006.1
20260508220104 54 241 2.0 4.0 0.00 0.00 0.00 36 1006.0
20260508220006 54 242 3.0 4.0 0.00 0.00 0.00 36 1006.1
20260508215904 54 237 2.0 4.0 0.00 0.00 0.00 36 1006.1
20260508215804 55 240 2.0 4.0 0.00 0.00 0.00 36 1006.0
20260508215704 55 242 4.0 6.0 0.00 0.00 0.00 35 1006.1
20260508215607 55 245 2.0 6.0 0.00 0.00 0.00 35 1005.7
20260508215520 55 246 4.0 6.0 0.00 0.00 0.00 35 1006.0
20260508215504 55 245 4.0 6.0 0.00 0.00 0.00 35 1006.0
20260508215406 55 247 3.0 6.0 0.00 0.00 0.00 35 1005.8
20260508215204 55 247 2.0 6.0 0.00 0.00 0.00 35 1005.9
20260508215105 55 243 2.0 6.0 0.00 0.00 0.00 35 1005.9
20260508215005 55 243 2.0 6.0 0.00 0.00 0.00 34 1005.8
20260508214904 55 239 2.0 8.0 0.00 0.00 0.00 34 1005.6
20260508214804 55 237 2.0 8.0 0.00 0.00 0.00 34 1005.8
20260508214704 55 237 3.0 8.0 0.00 0.00 0.00 34 1005.7
20260508214605 55 237 2.0 8.0 0.00 0.00 0.00 33 1005.8
20260508214505 55 235 2.0 8.0 0.00 0.00 0.00 33 1005.6
20260508214405 55 238 4.0 8.0 0.00 0.00 0.00 33 1005.6
20260508214303 56 240 2.0 8.0 0.00 0.00 0.00 33 1005.6
20260508214216 56 241 2.0 8.0 0.00 0.00 0.00 33 1005.5
20260508214208 56 242 4.0 8.0 0.00 0.00 0.00 33 1005.5
20260508214103 56 249 4.0 8.0 0.00 0.00 0.00 32 1005.5
20260508213908 56 253 6.0 8.0 0.00 0.00 0.00 32 1005.4
20260508213803 56 251 5.0 11.0 0.00 0.00 0.00 32 1005.8
20260508213704 56 242 3.0 11.0 0.00 0.00 0.00 33 1005.7
20260508213618 56 235 2.0 11.0 0.00 0.00 0.00 32 1005.5
20260508213604 56 234 2.0 11.0 0.00 0.00 0.00 32 1005.5
20260508213503 56 237 4.0 11.0 0.00 0.00 0.00 32 1005.4
20260508213304 56 230 5.0 11.0 0.00 0.00 0.00 31 1005.4
20260508213204 56 234 5.0 11.0 0.00 0.00 0.00 31 1005.6
20260508213004 56 234 6.0 11.0 0.00 0.00 0.00 31 1005.5
20260508212905 56 241 4.0 9.0 0.00 0.00 0.00 31 1005.4
20260508212803 56 252 4.0 11.0 0.00 0.00 0.00 31 1005.4
20260508212703 56 257 5.0 11.0 0.00 0.00 0.00 31 1005.6
20260508212604 56 259 4.0 11.0 0.00 0.00 0.00 31 1005.5
20260508212505 56 253 4.0 11.0 0.00 0.00 0.00 31 1005.3
20260508212403 56 248 5.0 11.0 0.00 0.00 0.00 31 1005.4
20260508212307 56 242 4.0 11.0 0.00 0.00 0.00 31 1005.3
20260508212204 56 238 5.0 11.0 0.00 0.00 0.00 31 1005.5
20260508212103 57 243 5.0 13.0 0.00 0.00 0.00 31 1005.4
20260508212003 57 257 5.0 13.0 0.00 0.00 0.00 31 1005.5
20260508211903 57 254 8.0 13.0 0.00 0.00 0.00 31 1005.2
20260508211803 57 261 4.0 13.0 0.00 0.00 0.00 31 1005.3
20260508211709 57 265 5.0 13.0 0.00 0.00 0.00 31 1005.2
20260508211604 57 257 6.0 13.0 0.00 0.00 0.00 30 1005.3
20260508211503 57 241 4.0 13.0 0.00 0.00 0.00 31 1005.2
20260508211404 57 230 3.0 11.0 0.00 0.00 0.00 32 1005.3
20260508211304 57 220 7.0 13.0 0.00 0.00 0.00 31 1005.3
20260508211205 57 219 7.0 13.0 0.00 0.00 0.00 31 1005.5
20260508211103 57 218 5.0 13.0 0.00 0.00 0.00 32 1005.6
20260508211003 57 228 6.0 13.0 0.00 0.00 0.00 32 1005.3
20260508210915 57 237 6.0 13.0 0.00 0.00 0.00 32 1005.4
20260508210904 57 239 6.0 13.0 0.00 0.00 0.00 32 1005.4
20260508210804 57 245 8.0 13.0 0.00 0.00 0.00 31 1005.3
20260508210603 57 246 6.0 13.0 0.00 0.00 0.00 32 1005.3
20260508210505 58 245 4.0 13.0 0.00 0.00 0.00 31 1005.3
20260508210403 58 247 8.0 13.0 0.00 0.00 0.00 31 1005.5
20260508210305 58 244 5.0 11.0 0.00 0.00 0.00 31 1005.2
20260508210215 58 244 6.0 11.0 0.00 0.00 0.00 31 1005.3
20260508210104 58 246 7.0 11.0 0.00 0.00 0.00 31 1005.3
20260508205904 58 248 4.0 14.0 0.00 0.00 0.00 30 1005.2
20260508205804 58 250 5.0 14.0 0.00 0.00 0.00 30 1005.1
20260508205718 58 250 7.0 20.0 0.00 0.00 0.00 29 1005.1
20260508205604 58 248 6.0 20.0 0.00 0.00 0.00 29 1005.0
20260508205515 58 247 5.0 20.0 0.00 0.00 0.00 29 1005.2
20260508205403 58 245 8.0 20.0 0.00 0.00 0.00 29 1005.3
20260508205317 58 248 8.0 20.0 0.00 0.00 0.00 29 1005.1
20260508205209 58 246 10.0 20.0 0.00 0.00 0.00 28 1005.1
20260508204903 58 257 4.0 17.0 0.00 0.00 0.00 29 1005.1
20260508204805 58 244 8.0 17.0 0.00 0.00 0.00 29 1004.9
20260508204704 58 247 6.0 17.0 0.00 0.00 0.00 29 1005.1
20260508204603 58 248 9.0 17.0 0.00 0.00 0.00 29 1005.1
20260508204504 59 244 9.0 17.0 0.00 0.00 0.00 29 1005.1
20260508204404 58 248 11.0 17.0 0.00 0.00 0.00 30 1005.2
20260508204303 59 258 8.0 15.0 0.00 0.00 0.00 30 1005.1
20260508204205 59 271 7.0 15.0 0.00 0.00 0.00 31 1005.1
20260508204105 59 267 5.0 15.0 0.00 0.00 0.00 31 1005.1
20260508204003 59 261 8.0 15.0 0.00 0.00 0.00 30 1005.0
20260508203905 59 256 7.0 15.0 0.00 0.00 0.00 30 1005.0
20260508203803 59 246 8.0 13.0 0.00 0.00 0.00 31 1005.1
20260508203703 59 227 6.0 13.0 0.00 0.00 0.00 31 1005.0
20260508203603 59 221 5.0 14.0 0.00 0.00 0.00 31 1005.2
20260508203503 59 229 4.0 14.0 0.00 0.00 0.00 31 1005.3
20260508203421 59 231 8.0 17.0 0.00 0.00 0.00 31 1005.0
20260508203408 59 229 5.0 17.0 0.00 0.00 0.00 32 1004.9
20260508203304 59 229 7.0 17.0 0.00 0.00 0.00 32 1005.1
20260508203103 59 244 11.0 17.0 0.00 0.00 0.00 31 1005.0
20260508203015 59 238 8.0 17.0 0.00 0.00 0.00 32 1005.1
20260508203003 59 234 9.0 17.0 0.00 0.00 0.00 32 1005.1
20260508202912 59 225 8.0 14.0 0.00 0.00 0.00 32 1005.0
20260508202705 59 213 4.0 14.0 0.00 0.00 0.00 34 1005.1
20260508202603 59 210 7.0 14.0 0.00 0.00 0.00 33 1005.0
20260508202403 59 231 7.0 15.0 0.00 0.00 0.00 34 1004.9
20260508202306 59 239 5.0 15.0 0.00 0.00 0.00 33 1004.9
20260508202204 59 240 7.0 15.0 0.00 0.00 0.00 33 1005.1
20260508202105 59 239 8.0 15.0 0.00 0.00 0.00 34 1005.0
20260508202016 59 234 9.0 15.0 0.00 0.00 0.00 33 1005.2
20260508202004 59 233 9.0 15.0 0.00 0.00 0.00 33 1005.2
20260508201905 59 229 6.0 11.0 0.00 0.00 0.00 34 1005.2
20260508201703 59 240 6.0 14.0 0.00 0.00 0.00 33 1005.1
20260508201615 59 243 5.0 14.0 0.00 0.00 0.00 33 1005.3
20260508201606 59 245 5.0 14.0 0.00 0.00 0.00 33 1005.3
20260508201504 59 243 4.0 14.0 0.00 0.00 0.00 33 1005.1
20260508201304 59 247 8.0 14.0 0.00 0.00 0.00 33 1005.1
20260508201205 59 240 8.0 14.0 0.00 0.00 0.00 32 1005.1
20260508201104 59 242 4.0 13.0 0.00 0.00 0.00 33 1005.3
20260508201017 59 244 7.0 13.0 0.00 0.00 0.00 33 1005.2
20260508201004 59 244 6.0 15.0 0.00 0.00 0.00 33 1005.2
20260508200903 59 240 5.0 15.0 0.00 0.00 0.00 33 1005.2
20260508200707 58 246 8.0 15.0 0.00 0.00 0.00 33 1005.1
20260508200603 58 248 8.0 15.0 0.00 0.00 0.00 33 1005.5
20260508200503 58 251 8.0 15.0 0.00 0.00 0.00 32 1004.9
20260508200405 58 251 8.0 13.0 0.00 0.00 0.00 32 1005.0
20260508200304 58 252 6.0 13.0 0.00 0.00 0.00 32 1005.2
20260508200204 59 249 8.0 13.0 0.00 0.00 0.00 32 1005.0
20260508200105 59 248 8.0 13.0 0.00 0.00 0.00 32 1005.1
20260508195905 59 257 4.0 11.0 0.00 0.00 0.00 33 1005.0
20260508195805 59 252 4.0 13.0 0.00 0.00 0.00 32 1005.1
20260508195714 59 250 4.0 13.0 0.00 0.00 0.00 32 1005.2
20260508195704 59 249 4.0 13.0 0.00 0.00 0.00 32 1005.2
20260508195605 59 252 8.0 13.0 0.00 0.00 0.00 32 1005.2
20260508195404 59 258 4.0 18.0 0.00 0.00 0.00 33 1005.3
20260508195306 59 257 8.0 18.0 0.00 0.00 0.00 32 1005.1
20260508195204 58 268 7.0 18.0 0.00 0.00 0.00 32 1005.2
20260508195105 58 267 9.0 18.0 0.00 0.00 0.00 32 1005.5
20260508195003 58 267 9.0 18.0 0.00 0.00 0.00 33 1005.3
20260508194904 58 258 10.0 17.0 0.00 0.00 0.00 33 1005.4
20260508194808 59 258 6.0 15.0 0.00 0.00 0.00 34 1005.3
20260508194703 59 253 8.0 15.0 0.00 0.00 0.00 34 1005.3
20260508194603 58 247 9.0 14.0 0.00 0.00 0.00 34 1005.4
20260508194503 58 241 8.0 14.0 0.00 0.00 0.00 34 1005.4
20260508194403 58 240 8.0 14.0 0.00 0.00 0.00 34 1005.4
20260508194303 58 244 7.0 14.0 0.00 0.00 0.00 35 1005.3
20260508194205 58 237 7.0 13.0 0.00 0.00 0.00 35 1005.3
20260508194116 59 249 7.0 13.0 0.00 0.00 0.00 35 1005.4
20260508194103 59 251 7.0 13.0 0.00 0.00 0.00 35 1005.4
20260508194005 59 254 3.0 13.0 0.00 0.00 0.00 35 1005.2
20260508193803 58 249 8.0 13.0 0.00 0.00 0.00 34 1005.3
20260508193703 58 252 8.0 15.0 0.00 0.00 0.00 34 1005.4
20260508193605 58 245 8.0 15.0 0.00 0.00 0.00 34 1005.3
20260508193503 59 244 8.0 15.0 0.00 0.00 0.00 33 1005.4
20260508193405 59 243 3.0 15.0 0.00 0.00 0.00 35 1005.3
20260508193203 58 247 8.0 15.0 0.00 0.00 0.00 34 1005.4
20260508193104 58 243 8.0 15.0 0.00 0.00 0.00 34 1005.4
20260508193004 58 242 4.0 13.0 0.00 0.00 0.00 36 1005.5
20260508192906 58 241 4.0 13.0 0.00 0.00 0.00 36 1005.2
20260508192804 58 246 8.0 13.0 0.00 0.00 0.00 35 1005.3
20260508192704 58 246 6.0 13.0 0.00 0.00 0.00 35 1005.2
20260508192607 58 251 4.0 15.0 0.00 0.00 0.00 36 1005.4
20260508192504 58 254 5.0 15.0 0.00 0.00 0.00 35 1005.2
20260508192407 58 257 9.0 15.0 0.00 0.00 0.00 35 1005.2
20260508192306 58 266 7.0 15.0 0.00 0.00 0.00 35 1005.1
20260508192205 58 275 7.0 15.0 0.00 0.00 0.00 34 1005.3
20260508192103 58 280 8.0 15.0 0.00 0.00 0.00 34 1005.4
20260508192005 58 282 7.0 14.0 0.00 0.00 0.00 34 1005.5
20260508191906 58 278 9.0 15.0 0.00 0.00 0.00 34 1005.4
20260508191803 58 259 9.0 17.0 0.00 0.00 0.00 34 1005.4
20260508191704 58 244 8.0 17.0 0.00 0.00 0.00 34 1005.3
20260508191616 58 243 8.0 17.0 0.00 0.00 0.00 34 1005.4
20260508191604 58 240 8.0 17.0 0.00 0.00 0.00 34 1005.4
20260508191507 58 238 7.0 17.0 0.00 0.00 0.00 35 1005.4
20260508191303 58 242 8.0 17.0 0.00 0.00 0.00 35 1005.3
20260508191204 58 237 6.0 16.0 0.00 0.00 0.00 36 1005.4
20260508191104 58 232 11.0 16.0 0.00 0.00 0.00 35 1005.2
20260508191005 58 238 9.0 16.0 0.00 0.00 0.00 35 1005.4
20260508190904 58 248 8.0 16.0 0.00 0.00 0.00 35 1005.2
20260508190804 59 250 8.0 16.0 0.00 0.00 0.00 35 1005.4
20260508190705 59 256 8.0 16.0 0.00 0.00 0.00 36 1005.4
20260508190604 59 260 8.0 18.0 0.00 0.00 0.00 35 1005.4
20260508190503 59 257 8.0 18.0 0.00 0.00 0.00 35 1005.5
20260508190405 58 252 10.0 18.0 0.00 0.00 0.00 35 1005.5
20260508190303 59 250 10.0 18.0 0.00 0.00 0.00 35 1005.3
20260508190204 59 250 11.0 18.0 0.00 0.00 0.00 36 1005.4
20260508190105 59 250 9.0 18.0 0.00 0.00 0.00 35 1005.3
20260508190004 59 246 6.0 15.0 0.00 0.00 0.00 36 1005.3
20260508185904 59 242 6.0 15.0 0.00 0.00 0.00 36 1005.2
20260508185804 58 241 9.0 15.0 0.00 0.00 0.00 36 1005.3
20260508185704 59 245 8.0 13.0 0.00 0.00 0.00 36 1005.2
20260508185606 59 246 6.0 13.0 0.00 0.00 0.00 37 1005.4
20260508185504 59 246 8.0 13.0 0.00 0.00 0.00 37 1005.3
20260508185415 59 244 8.0 13.0 0.00 0.00 0.00 37 1005.5
20260508185403 59 246 6.0 14.0 0.00 0.00 0.00 37 1005.4
20260508185306 59 253 6.0 14.0 0.00 0.00 0.00 37 1005.4
20260508185103 59 271 4.0 18.0 0.00 0.00 0.00 37 1005.6
20260508185003 59 265 6.0 20.0 0.00 0.00 0.00 37 1005.5
20260508184903 58 263 10.0 20.0 0.00 0.00 0.00 36 1005.5
20260508184804 59 258 4.0 20.0 0.00 0.00 0.00 36 1005.4
20260508184707 58 250 8.0 20.0 0.00 0.00 0.00 36 1005.5
20260508184604 58 237 11.0 20.0 0.00 0.00 0.00 36 1005.5
20260508184504 59 233 9.0 20.0 0.00 0.00 0.00 36 1005.5
20260508184403 59 238 7.0 20.0 0.00 0.00 0.00 36 1005.3
20260508184320 58 232 9.0 20.0 0.00 0.00 0.00 35 1005.5
20260508184303 58 231 9.0 20.0 0.00 0.00 0.00 35 1005.5
20260508184205 59 232 9.0 16.0 0.00 0.00 0.00 36 1005.7
20260508184015 59 245 8.0 15.0 0.00 0.00 0.00 36 1005.5
20260508184005 59 248 8.0 15.0 0.00 0.00 0.00 36 1005.5
20260508183903 58 245 9.0 15.0 0.00 0.00 0.00 36 1005.5
20260508183704 58 260 9.0 15.0 0.00 0.00 0.00 37 1005.7
20260508183611 59 256 6.0 13.0 0.00 0.00 0.00 37 1005.6
20260508183504 59 257 7.0 13.0 0.00 0.00 0.00 37 1005.7
20260508183404 59 261 8.0 14.0 0.00 0.00 0.00 38 1005.5
20260508183204 58 260 6.0 14.0 0.00 0.00 0.00 38 1005.5
20260508183104 58 270 6.0 17.0 0.00 0.00 0.00 37 1005.3
20260508183005 58 277 8.0 17.0 0.00 0.00 0.00 37 1005.6
20260508182904 59 280 8.0 17.0 0.00 0.00 0.00 38 1005.6
20260508182804 59 276 4.0 17.0 0.00 0.00 0.00 39 1005.5
20260508182704 58 277 8.0 17.0 0.00 0.00 0.00 39 1005.9
20260508182606 58 270 9.0 17.0 0.00 0.00 0.00 38 1005.9
20260508182504 58 262 10.0 17.0 0.00 0.00 0.00 38 1005.7
20260508182403 59 260 9.0 17.0 0.00 0.00 0.00 38 1005.7
20260508182306 59 254 4.0 17.0 0.00 0.00 0.00 38 1005.8
20260508182205 58 256 9.0 17.0 0.00 0.00 0.00 39 1005.5
20260508182104 58 252 14.0 17.0 0.00 0.00 0.00 38 1005.7
20260508182005 59 247 6.0 17.0 0.00 0.00 0.00 39 1005.7
20260508181903 58 245 9.0 21.0 0.00 0.00 0.00 39 1005.6
20260508181803 59 250 8.0 21.0 0.00 0.00 0.00 38 1005.6
20260508181704 58 252 4.0 21.0 0.00 0.00 0.00 39 1005.5
20260508181604 58 252 5.0 21.0 0.00 0.00 0.00 38 1005.7
20260508181505 58 254 8.0 21.0 0.00 0.00 0.00 38 1005.6
20260508181403 58 254 10.0 21.0 0.00 0.00 0.00 39 1005.9
20260508181216 58 245 11.0 21.0 0.00 0.00 0.00 38 1005.6
20260508181205 58 243 11.0 21.0 0.00 0.00 0.00 38 1005.6
20260508181105 58 247 10.0 21.0 0.00 0.00 0.00 38 1005.9
20260508180803 58 260 10.0 21.0 0.00 0.00 0.00 38 1005.7
20260508180704 59 257 10.0 21.0 0.00 0.00 0.00 38 1005.9
20260508180604 58 250 9.0 15.0 0.00 0.00 0.00 37 1005.5
20260508180409 58 216 10.0 21.0 0.00 0.00 0.00 36 1006.0
20260508180304 59 208 8.0 21.0 0.00 0.00 0.00 37 1005.8
20260508180206 59 213 6.0 21.0 0.00 0.00 0.00 37 1005.7
20260508180115 58 222 7.0 21.0 0.00 0.00 0.00 37 1005.9
20260508180103 58 226 7.0 21.0 0.00 0.00 0.00 37 1005.9
20260508180004 58 249 11.0 21.0 0.00 0.00 0.00 37 1005.6
20260508175804 58 270 12.0 18.0 0.00 0.00 0.00 38 1005.9
20260508175705 58 269 8.0 18.0 0.00 0.00 0.00 39 1005.8
20260508175605 58 262 11.0 18.0 0.00 0.00 0.00 39 1005.9
20260508175505 58 257 11.0 18.0 0.00 0.00 0.00 39 1005.9
20260508175405 58 258 7.0 18.0 0.00 0.00 0.00 38 1005.8
20260508175306 58 257 8.0 18.0 0.00 0.00 0.00 38 1005.9
20260508175203 58 262 11.0 18.0 0.00 0.00 0.00 38 1005.9
20260508175103 58 262 9.0 17.0 0.00 0.00 0.00 38 1006.1
20260508175003 58 251 6.0 21.0 0.00 0.00 0.00 39 1005.8
20260508174903 58 230 7.0 21.0 0.00 0.00 0.00 39 1005.9
20260508174809 58 219 10.0 21.0 0.00 0.00 0.00 39 1005.9
20260508174703 58 197 9.0 21.0 0.00 0.00 0.00 38 1005.8
20260508174604 57 181 10.0 21.0 0.00 0.00 0.00 38 1005.7
20260508174505 58 173 11.0 21.0 0.00 0.00 0.00 38 1005.8
20260508174404 57 186 13.0 18.0 0.00 0.00 0.00 38 1006.1
20260508174304 58 203 8.0 18.0 0.00 0.00 0.00 38 1005.8
20260508174204 58 220 8.0 18.0 0.00 0.00 0.00 38 1005.9
20260508174104 58 231 9.0 18.0 0.00 0.00 0.00 38 1005.9
20260508174004 58 237 8.0 18.0 0.00 0.00 0.00 38 1006.1
20260508173907 57 236 11.0 18.0 0.00 0.00 0.00 38 1005.8
20260508173805 57 241 11.0 18.0 0.00 0.00 0.00 38 1005.9
20260508173703 58 247 11.0 17.0 0.00 0.00 0.00 38 1006.1
20260508173604 58 263 7.0 17.0 0.00 0.00 0.00 38 1005.9
20260508173504 58 260 9.0 17.0 0.00 0.00 0.00 39 1005.8
20260508173404 58 258 9.0 17.0 0.00 0.00 0.00 40 1005.9
20260508173305 58 259 11.0 17.0 0.00 0.00 0.00 38 1005.9
20260508173203 58 255 5.0 17.0 0.00 0.00 0.00 39 1006.0
20260508173005 58 246 7.0 20.0 0.00 0.00 0.00 40 1006.0
20260508172904 57 250 10.0 20.0 0.00 0.00 0.00 40 1006.1
20260508172803 58 256 7.0 20.0 0.00 0.00 0.00 40 1005.9
20260508172707 57 258 5.0 20.0 0.00 0.00 0.00 40 1005.9
20260508172604 57 263 13.0 20.0 0.00 0.00 0.00 39 1005.8
20260508172515 58 270 8.0 15.0 0.00 0.00 0.00 40 1006.0
20260508172403 58 257 6.0 16.0 0.00 0.00 0.00 40 1005.6
20260508172322 58 249 7.0 16.0 0.00 0.00 0.00 40 1005.9
20260508172203 58 237 6.0 16.0 0.00 0.00 0.00 40 1006.0
20260508172003 58 217 8.0 16.0 0.00 0.00 0.00 40 1005.9
20260508171903 57 221 9.0 16.0 0.00 0.00 0.00 40 1005.9
20260508171815 57 221 8.0 16.0 0.00 0.00 0.00 40 1005.9
20260508171803 57 223 10.0 16.0 0.00 0.00 0.00 40 1005.9
20260508171703 58 222 8.0 16.0 0.00 0.00 0.00 40 1006.0
20260508171506 57 244 9.0 20.0 0.00 0.00 0.00 40 1005.8
20260508171404 57 245 8.0 20.0 0.00 0.00 0.00 41 1006.1
20260508171308 57 247 10.0 20.0 0.00 0.00 0.00 41 1006.1
20260508171203 56 249 11.0 20.0 0.00 0.00 0.00 40 1006.1
20260508171104 57 254 11.0 20.0 0.00 0.00 0.00 41 1006.0
20260508171005 57 253 8.0 17.0 0.00 0.00 0.00 41 1006.4
20260508170903 57 244 9.0 18.0 0.00 0.00 0.00 41 1006.1
20260508170804 57 247 6.0 18.0 0.00 0.00 0.00 41 1006.2
20260508170703 57 247 8.0 18.0 0.00 0.00 0.00 41 1006.1
20260508170604 56 241 11.0 18.0 0.00 0.00 0.00 42 1006.4
20260508170403 56 251 11.0 18.0 0.00 0.00 0.00 42 1006.2
20260508170306 57 247 9.0 18.0 0.00 0.00 0.00 42 1006.2
20260508170203 57 258 8.0 21.0 0.00 0.00 0.00 41 1006.1
20260508170004 57 254 9.0 21.0 0.00 0.00 0.00 41 1005.9
20260508165903 58 233 5.0 23.0 0.00 0.00 0.00 41 1006.1
20260508165805 57 223 9.0 23.0 0.00 0.00 0.00 42 1006.3
20260508165703 57 208 8.0 23.0 0.00 0.00 0.00 42 1006.3
20260508165603 57 211 8.0 23.0 0.00 0.00 0.00 42 1006.3
20260508165504 57 208 12.0 23.0 0.00 0.00 0.00 42 1006.2
20260508165404 58 218 8.0 18.0 0.00 0.00 0.00 42 1006.4
20260508165315 57 217 10.0 18.0 0.00 0.00 0.00 42 1006.3
20260508165306 57 221 10.0 18.0 0.00 0.00 0.00 42 1006.3
20260508165204 58 224 4.0 18.0 0.00 0.00 0.00 42 1006.3
20260508165004 57 217 8.0 18.0 0.00 0.00 0.00 42 1006.1
20260508164906 56 221 12.0 18.0 0.00 0.00 0.00 42 1006.5
20260508164804 57 232 7.0 18.0 0.00 0.00 0.00 42 1006.5
20260508164705 57 232 7.0 18.0 0.00 0.00 0.00 42 1006.3